FW6617 Weather Reports


Display with metric or nautical units.
time (UTC)temp
F
wind
direction
speed
MPH
gust
MPH
rain 1hr
in
rain 24hr
in
rain mn
in
humidity
%
barometer
mb
20210622165513 72 0 1.0 5.0 0.00 0.00 0.00 49 1011.3
20210622165408 72 0 1.0 5.0 0.00 0.00 0.00 48 1011.3
20210622165306 72 0 1.0 5.0 0.00 0.00 0.00 49 1011.3
20210622165201 72 0 2.0 5.0 0.00 0.00 0.00 49 1011.4
20210622165056 72 0 2.0 8.0 0.00 0.00 0.00 48 1011.4
20210622164949 72 0 2.0 8.0 0.00 0.00 0.00 48 1011.4
20210622164842 72 0 1.0 8.0 0.00 0.00 0.00 50 1011.3
20210622164739 72 0 1.0 8.0 0.00 0.00 0.00 51 1011.3
20210622164634 72 0 1.0 8.0 0.00 0.00 0.00 50 1011.4
20210622164527 72 0 1.0 8.0 0.00 0.00 0.00 51 1011.4
20210622164419 72 0 2.0 8.0 0.00 0.00 0.00 50 1011.4
20210622164315 72 0 2.0 8.0 0.00 0.00 0.00 50 1011.4
20210622164213 72 0 2.0 8.0 0.00 0.00 0.00 51 1011.4
20210622164108 72 0 2.0 8.0 0.00 0.00 0.00 51 1011.4
20210622164003 71 0 2.0 8.0 0.00 0.00 0.00 52 1011.4
20210622163858 71 0 2.0 8.0 0.00 0.00 0.00 52 1011.4
20210622163753 71 0 2.0 8.0 0.00 0.00 0.00 52 1011.5
20210622163649 71 0 2.0 8.0 0.00 0.00 0.00 51 1011.5
20210622163547 71 0 2.0 8.0 0.00 0.00 0.00 52 1011.5
20210622163442 71 0 2.0 8.0 0.00 0.00 0.00 52 1011.6
20210622163338 71 0 2.0 8.0 0.00 0.00 0.00 54 1011.6
20210622163233 70 0 2.0 8.0 0.00 0.00 0.00 52 1011.6
20210622163131 70 0 1.0 8.0 0.00 0.00 0.00 52 1011.6
20210622163026 70 0 2.0 5.0 0.00 0.00 0.00 52 1011.7
20210622162923 70 0 2.0 5.0 0.00 0.00 0.00 51 1011.7
20210622162821 70 0 2.0 5.0 0.00 0.00 0.00 51 1011.7
20210622162719 70 0 2.0 5.0 0.00 0.00 0.00 51 1011.7
20210622162614 71 0 1.0 5.0 0.00 0.00 0.00 50 1011.7
20210622162507 71 0 1.0 5.0 0.00 0.00 0.00 52 1011.9
20210622162404 71 0 1.0 5.0 0.00 0.00 0.00 53 1011.8
20210622162301 70 0 1.0 5.0 0.00 0.00 0.00 53 1011.9
20210622162157 70 0 1.0 5.0 0.00 0.00 0.00 52 1012.0
20210622162050 70 0 1.0 5.0 0.00 0.00 0.00 53 1011.9
20210622161946 70 0 1.0 9.0 0.00 0.00 0.00 54 1011.9
20210622161842 70 0 2.0 9.0 0.00 0.00 0.00 55 1012.0
20210622161734 69 0 2.0 9.0 0.00 0.00 0.00 54 1012.0
20210622161628 69 0 2.0 9.0 0.00 0.00 0.00 54 1011.9
20210622161526 69 0 2.0 9.0 0.00 0.00 0.00 53 1012.0
20210622161418 69 0 2.0 9.0 0.00 0.00 0.00 53 1012.0
20210622161315 69 0 3.0 9.0 0.00 0.00 0.00 54 1012.0
20210622161210 69 0 3.0 9.0 0.00 0.00 0.00 54 1012.0
20210622161107 69 0 3.0 9.0 0.00 0.00 0.00 53 1012.1
20210622160959 69 0 4.0 9.0 0.00 0.00 0.00 53 1012.1
20210622160853 69 0 4.0 10.0 0.00 0.00 0.00 53 1012.1
20210622160746 68 0 4.0 10.0 0.00 0.00 0.00 54 1012.1
20210622160640 68 0 4.0 10.0 0.00 0.00 0.00 53 1012.1
20210622160535 68 0 4.0 10.0 0.00 0.00 0.00 53 1012.1
20210622160430 68 0 4.0 10.0 0.00 0.00 0.00 53 1012.1
20210622160324 69 0 4.0 10.0 0.00 0.00 0.00 52 1012.1
20210622160216 69 0 3.0 10.0 0.00 0.00 0.00 54 1012.1
20210622160113 68 0 3.0 10.0 0.00 0.00 0.00 54 1012.0
20210622160007 68 0 3.0 10.0 0.00 0.00 0.00 54 1012.1
20210622155900 68 0 3.0 10.0 0.00 0.00 0.00 54 1012.2
20210622155757 68 0 4.0 10.0 0.00 0.00 0.00 53 1012.1
20210622155654 68 0 4.0 10.0 0.00 0.00 0.00 54 1012.2
20210622155549 68 0 4.0 10.0 0.00 0.00 0.00 55 1012.2
20210622155442 68 0 4.0 10.0 0.00 0.00 0.00 53 1012.2
20210622155340 68 0 4.0 10.0 0.00 0.00 0.00 53 1012.2
20210622155238 68 0 4.0 10.0 0.00 0.00 0.00 53 1012.2
20210622155133 68 0 4.0 10.0 0.00 0.00 0.00 54 1012.2
20210622155026 68 0 4.0 10.0 0.00 0.00 0.00 56 1012.2
20210622154919 68 0 4.0 8.0 0.00 0.00 0.00 55 1012.2
20210622154812 67 0 4.0 10.0 0.00 0.00 0.00 56 1012.2
20210622154708 67 0 4.0 10.0 0.00 0.00 0.00 54 1012.2
20210622154605 67 0 4.0 10.0 0.00 0.00 0.00 54 1012.3
20210622154501 67 0 4.0 10.0 0.00 0.00 0.00 53 1012.2
20210622154356 67 0 4.0 10.0 0.00 0.00 0.00 54 1012.2
20210622154252 67 0 3.0 10.0 0.00 0.00 0.00 55 1012.3
20210622154148 67 0 3.0 10.0 0.00 0.00 0.00 55 1012.3
20210622154045 67 0 3.0 10.0 0.00 0.00 0.00 54 1012.3
20210622153938 68 0 4.0 10.0 0.00 0.00 0.00 55 1012.3
20210622153834 68 0 3.0 10.0 0.00 0.00 0.00 53 1012.3
20210622153730 68 0 3.0 10.0 0.00 0.00 0.00 54 1012.3
20210622153628 68 0 3.0 10.0 0.00 0.00 0.00 54 1012.3
20210622153520 67 0 3.0 10.0 0.00 0.00 0.00 55 1012.3
20210622153413 67 0 3.0 10.0 0.00 0.00 0.00 54 1012.3
20210622153308 67 0 3.0 10.0 0.00 0.00 0.00 55 1012.3
20210622153202 67 0 3.0 10.0 0.00 0.00 0.00 53 1012.3
20210622153056 67 0 3.0 10.0 0.00 0.00 0.00 54 1012.4
20210622152950 67 0 3.0 10.0 0.00 0.00 0.00 54 1012.4
20210622152846 67 0 2.0 7.0 0.00 0.00 0.00 54 1012.4
20210622152739 67 0 2.0 7.0 0.00 0.00 0.00 54 1012.5
20210622152637 67 0 2.0 7.0 0.00 0.00 0.00 55 1012.4
20210622152534 67 0 2.0 7.0 0.00 0.00 0.00 54 1012.4
20210622152429 67 0 3.0 7.0 0.00 0.00 0.00 54 1012.4
20210622152325 67 0 3.0 7.0 0.00 0.00 0.00 54 1012.4
20210622152220 67 0 3.0 7.0 0.00 0.00 0.00 54 1012.4
20210622152114 67 0 3.0 7.0 0.00 0.00 0.00 54 1012.4
20210622152008 67 0 3.0 7.0 0.00 0.00 0.00 56 1012.4
20210622151904 67 0 3.0 7.0 0.00 0.00 0.00 55 1012.5
20210622151757 67 0 3.0 7.0 0.00 0.00 0.00 55 1012.5
20210622151655 67 0 3.0 7.0 0.00 0.00 0.00 55 1012.4
20210622151552 67 0 3.0 7.0 0.00 0.00 0.00 54 1012.4
20210622151449 67 0 3.0 7.0 0.00 0.00 0.00 54 1012.5
20210622151344 67 0 2.0 7.0 0.00 0.00 0.00 54 1012.5
20210622151241 67 0 2.0 7.0 0.00 0.00 0.00 54 1012.5
20210622151135 67 0 2.0 5.0 0.00 0.00 0.00 54 1012.5
20210622151029 67 0 2.0 5.0 0.00 0.00 0.00 54 1012.5
20210622150922 67 0 1.0 5.0 0.00 0.00 0.00 54 1012.6
20210622150817 67 0 1.0 5.0 0.00 0.00 0.00 53 1012.6
20210622150714 67 0 1.0 5.0 0.00 0.00 0.00 54 1012.6
20210622150611 67 0 1.0 5.0 0.00 0.00 0.00 54 1012.7
20210622150508 66 0 1.0 5.0 0.00 0.00 0.00 55 1012.6
20210622150404 66 0 1.0 4.0 0.00 0.00 0.00 54 1012.7
20210622150302 66 0 1.0 4.0 0.00 0.00 0.00 54 1012.7
20210622150200 66 0 1.0 4.0 0.00 0.00 0.00 55 1012.7
20210622150056 66 0 1.0 4.0 0.00 0.00 0.00 57 1012.7
20210622145948 66 0 1.0 4.0 0.00 0.00 0.00 56 1012.8
20210622145842 65 0 1.0 4.0 0.00 0.00 0.00 55 1012.8
20210622145736 65 0 1.0 4.0 0.00 0.00 0.00 54 1012.8
20210622145628 65 0 1.0 4.0 0.00 0.00 0.00 55 1012.8
20210622145520 65 0 1.0 4.0 0.00 0.00 0.00 55 1012.8
20210622145417 65 0 1.0 4.0 0.00 0.00 0.00 55 1012.9
20210622145313 65 0 1.0 4.0 0.00 0.00 0.00 55 1012.9
20210622145205 65 0 1.0 3.0 0.00 0.00 0.00 55 1012.9
20210622145059 65 0 1.0 3.0 0.00 0.00 0.00 56 1012.9
20210622144956 65 0 1.0 3.0 0.00 0.00 0.00 56 1012.9
20210622144850 65 0 1.0 3.0 0.00 0.00 0.00 56 1013.0
20210622144745 65 0 1.0 3.0 0.00 0.00 0.00 55 1013.0
20210622144642 65 0 1.0 3.0 0.00 0.00 0.00 55 1013.0
20210622144538 65 0 1.0 3.0 0.00 0.00 0.00 55 1013.0
20210622144435 65 0 1.0 3.0 0.00 0.00 0.00 56 1013.0
20210622144333 64 0 1.0 4.0 0.00 0.00 0.00 56 1013.1
20210622144228 64 0 1.0 4.0 0.00 0.00 0.00 55 1013.0
20210622144125 64 0 1.0 4.0 0.00 0.00 0.00 55 1013.0
20210622144023 64 0 1.0 4.0 0.00 0.00 0.00 55 1013.0
20210622143916 64 0 1.0 4.0 0.00 0.00 0.00 55 1013.0
20210622143813 64 0 1.0 4.0 0.00 0.00 0.00 55 1013.0
20210622143708 64 0 1.0 4.0 0.00 0.00 0.00 57 1013.0
20210622143604 64 0 1.0 4.0 0.00 0.00 0.00 57 1013.1
20210622143503 64 0 1.0 4.0 0.00 0.00 0.00 57 1013.1
20210622143400 64 0 1.0 4.0 0.00 0.00 0.00 56 1013.1
20210622143257 64 0 1.0 4.0 0.00 0.00 0.00 56 1013.2
20210622143152 63 0 2.0 4.0 0.00 0.00 0.00 55 1013.2
20210622143049 64 0 2.0 4.0 0.00 0.00 0.00 55 1013.2
20210622142945 64 0 2.0 4.0 0.00 0.00 0.00 55 1013.2
20210622142838 64 0 1.0 4.0 0.00 0.00 0.00 56 1013.2
20210622142734 63 0 1.0 4.0 0.00 0.00 0.00 55 1013.2
20210622142630 63 0 2.0 4.0 0.00 0.00 0.00 55 1013.2
20210622142525 63 0 2.0 4.0 0.00 0.00 0.00 54 1013.3
20210622142419 63 0 2.0 4.0 0.00 0.00 0.00 56 1013.3
20210622142314 63 0 1.0 4.0 0.00 0.00 0.00 55 1013.3
20210622142210 63 0 2.0 4.0 0.00 0.00 0.00 55 1013.3
20210622142105 63 0 2.0 4.0 0.00 0.00 0.00 56 1013.3
20210622141958 63 0 2.0 4.0 0.00 0.00 0.00 57 1013.3
20210622141857 63 0 2.0 4.0 0.00 0.00 0.00 56 1013.3
20210622141753 63 0 2.0 4.0 0.00 0.00 0.00 56 1013.3
20210622141651 62 0 2.0 4.0 0.00 0.00 0.00 57 1013.3
20210622141546 62 0 2.0 4.0 0.00 0.00 0.00 57 1013.3
20210622141443 62 0 2.0 4.0 0.00 0.00 0.00 57 1013.3
20210622141339 62 0 2.0 4.0 0.00 0.00 0.00 57 1013.3
20210622141236 62 0 2.0 4.0 0.00 0.00 0.00 57 1013.3
20210622141131 62 0 2.0 4.0 0.00 0.00 0.00 58 1013.3
20210622141023 62 0 2.0 4.0 0.00 0.00 0.00 58 1013.3
20210622140921 61 0 2.0 4.0 0.00 0.00 0.00 59 1013.4
20210622140815 61 0 2.0 4.0 0.00 0.00 0.00 60 1013.4
20210622140712 61 0 2.0 4.0 0.00 0.00 0.00 60 1013.4
20210622140608 61 0 2.0 4.0 0.00 0.00 0.00 58 1013.4
20210622140505 61 0 2.0 4.0 0.00 0.00 0.00 58 1013.4
20210622140402 60 0 2.0 4.0 0.00 0.00 0.00 59 1013.4
20210622140255 60 0 3.0 5.0 0.00 0.00 0.00 59 1013.5
20210622140149 60 0 3.0 5.0 0.00 0.00 0.00 58 1013.5
20210622140045 61 0 3.0 5.0 0.00 0.00 0.00 58 1013.5
20210622135938 61 0 3.0 5.0 0.00 0.00 0.00 58 1013.5
20210622135831 61 0 3.0 5.0 0.00 0.00 0.00 58 1013.6
20210622135725 61 0 3.0 5.0 0.00 0.00 0.00 58 1013.6
20210622135618 61 0 3.0 5.0 0.00 0.00 0.00 58 1013.6
20210622135511 61 0 3.0 5.0 0.00 0.00 0.00 58 1013.6
20210622135405 61 0 3.0 5.0 0.00 0.00 0.00 58 1013.6
20210622135301 61 0 4.0 7.0 0.00 0.00 0.00 58 1013.6
20210622135154 61 0 4.0 7.0 0.00 0.00 0.00 57 1013.6
20210622135047 61 0 4.0 7.0 0.00 0.00 0.00 57 1013.6
20210622134939 61 0 4.0 7.0 0.00 0.00 0.00 58 1013.6
20210622134836 61 0 4.0 7.0 0.00 0.00 0.00 57 1013.6
20210622134730 61 0 4.0 7.0 0.00 0.00 0.00 57 1013.6
20210622134625 61 0 3.0 7.0 0.00 0.00 0.00 58 1013.6
20210622134518 61 0 3.0 7.0 0.00 0.00 0.00 57 1013.6
20210622134411 61 0 3.0 7.0 0.00 0.00 0.00 56 1013.6
20210622134305 61 0 3.0 8.0 0.00 0.00 0.00 55 1013.6
20210622134204 62 0 3.0 8.0 0.00 0.00 0.00 55 1013.6
20210622134100 62 0 3.0 8.0 0.00 0.00 0.00 56 1013.6
20210622133954 62 0 3.0 8.0 0.00 0.00 0.00 55 1013.6
20210622133852 62 0 3.0 8.0 0.00 0.00 0.00 55 1013.6
20210622133748 62 0 3.0 8.0 0.00 0.00 0.00 56 1013.6
20210622133645 62 0 3.0 8.0 0.00 0.00 0.00 55 1013.6
20210622133542 62 0 4.0 8.0 0.00 0.00 0.00 54 1013.6
20210622133440 62 0 4.0 8.0 0.00 0.00 0.00 55 1013.5
20210622133334 62 0 4.0 8.0 0.00 0.00 0.00 56 1013.5
20210622133229 61 0 4.0 8.0 0.00 0.00 0.00 56 1013.5
20210622133127 61 0 4.0 8.0 0.00 0.00 0.00 56 1013.5
20210622133024 61 0 4.0 8.0 0.00 0.00 0.00 57 1013.5
20210622132920 61 0 4.0 8.0 0.00 0.00 0.00 56 1013.5
20210622132813 61 0 4.0 8.0 0.00 0.00 0.00 57 1013.5
20210622132706 61 0 4.0 8.0 0.00 0.00 0.00 57 1013.5
20210622132600 61 0 4.0 8.0 0.00 0.00 0.00 57 1013.5
20210622132458 61 0 4.0 8.0 0.00 0.00 0.00 57 1013.5
20210622132352 60 0 4.0 8.0 0.00 0.00 0.00 58 1013.5
20210622132244 60 0 4.0 7.0 0.00 0.00 0.00 58 1013.6
20210622132142 60 0 4.0 7.0 0.00 0.00 0.00 58 1013.6
20210622132035 60 0 4.0 7.0 0.00 0.00 0.00 58 1013.6
20210622131931 60 0 4.0 7.0 0.00 0.00 0.00 59 1013.6
20210622131828 60 0 3.0 7.0 0.00 0.00 0.00 59 1013.6
20210622131724 60 0 3.0 7.0 0.00 0.00 0.00 59 1013.6
20210622131620 60 0 3.0 7.0 0.00 0.00 0.00 59 1013.6
20210622131518 60 0 3.0 7.0 0.00 0.00 0.00 59 1013.7
20210622131415 59 0 3.0 7.0 0.00 0.00 0.00 60 1013.7
20210622131311 59 0 3.0 7.0 0.00 0.00 0.00 61 1013.7
20210622131204 59 0 3.0 7.0 0.00 0.00 0.00 61 1013.7
20210622131059 59 0 3.0 7.0 0.00 0.00 0.00 62 1013.7
20210622130955 59 0 3.0 7.0 0.00 0.00 0.00 62 1013.7
20210622130848 59 0 3.0 7.0 0.00 0.00 0.00 61 1013.7
20210622130740 58 0 3.0 7.0 0.00 0.00 0.00 62 1013.7
20210622130634 58 0 3.0 7.0 0.00 0.00 0.00 61 1013.7
20210622130528 58 0 3.0 5.0 0.00 0.00 0.00 62 1013.6
20210622130422 58 0 3.0 5.0 0.00 0.00 0.00 62 1013.7
20210622130318 58 0 3.0 5.0 0.00 0.00 0.00 61 1013.7
20210622130215 58 0 3.0 5.0 0.00 0.00 0.00 62 1013.7
20210622130108 58 0 3.0 5.0 0.00 0.00 0.00 63 1013.7
20210622130002 58 0 3.0 5.0 0.00 0.00 0.00 62 1013.7
20210622125855 58 0 3.0 5.0 0.00 0.00 0.00 63 1013.8
20210622125747 57 0 3.0 5.0 0.00 0.00 0.00 63 1013.8
20210622125645 57 0 3.0 5.0 0.00 0.00 0.00 64 1013.9
20210622125541 57 0 3.0 5.0 0.00 0.00 0.00 63 1013.9
20210622125439 57 0 3.0 5.0 0.00 0.00 0.00 63 1013.9
20210622125336 57 0 3.0 5.0 0.00 0.00 0.00 64 1013.9
20210622125230 57 0 3.0 5.0 0.00 0.00 0.00 65 1013.9
20210622125127 57 0 3.0 5.0 0.00 0.00 0.00 65 1013.9
20210622125026 57 0 3.0 5.0 0.00 0.00 0.00 65 1013.9
20210622124922 56 0 3.0 4.0 0.00 0.00 0.00 65 1013.9
20210622124819 56 0 2.0 4.0 0.00 0.00 0.00 65 1013.9
20210622124712 56 0 2.0 4.0 0.00 0.00 0.00 66 1013.8
20210622124605 56 0 2.0 4.0 0.00 0.00 0.00 67 1013.8
20210622124458 56 0 2.0 4.0 0.00 0.00 0.00 68 1013.8
20210622124352 56 0 2.0 4.0 0.00 0.00 0.00 68 1013.8
20210622124250 56 0 2.0 4.0 0.00 0.00 0.00 68 1013.8
20210622124145 56 0 1.0 4.0 0.00 0.00 0.00 68 1013.8
20210622124040 55 0 1.0 4.0 0.00 0.00 0.00 68 1013.8
20210622123936 55 0 1.0 4.0 0.00 0.00 0.00 69 1013.8
20210622123831 55 0 1.0 4.0 0.00 0.00 0.00 69 1013.8
20210622123725 55 0 1.0 4.0 0.00 0.00 0.00 69 1013.8
20210622123618 55 0 1.0 4.0 0.00 0.00 0.00 69 1013.8
20210622123511 55 0 1.0 4.0 0.00 0.00 0.00 69 1013.8
20210622123407 54 0 1.0 4.0 0.00 0.00 0.00 69 1013.8
20210622123302 54 0 1.0 3.0 0.00 0.00 0.00 70 1013.8
20210622123157 54 0 1.0 3.0 0.00 0.00 0.00 70 1013.8
20210622123050 54 0 1.0 3.0 0.00 0.00 0.00 70 1013.8
20210622122947 54 0 1.0 3.0 0.00 0.00 0.00 70 1013.8
20210622122842 54 0 1.0 3.0 0.00 0.00 0.00 70 1013.8
20210622122738 54 0 1.0 3.0 0.00 0.00 0.00 70 1013.8
20210622122636 54 0 1.0 3.0 0.00 0.00 0.00 70 1013.8
20210622122530 53 0 1.0 3.0 0.00 0.00 0.00 71 1013.9
20210622122423 53 0 1.0 3.0 0.00 0.00 0.00 70 1013.9
20210622122319 53 0 1.0 3.0 0.00 0.00 0.00 71 1013.9
20210622122216 53 0 1.0 3.0 0.00 0.00 0.00 71 1013.9
20210622122109 53 0 1.0 3.0 0.00 0.00 0.00 71 1013.9
20210622122003 53 0 1.0 3.0 0.00 0.00 0.00 71 1013.9
20210622121858 53 0 1.0 3.0 0.00 0.00 0.00 71 1013.9
20210622121755 53 0 1.0 3.0 0.00 0.00 0.00 71 1013.8
20210622121653 52 0 1.0 3.0 0.00 0.00 0.00 72 1013.9
20210622121546 52 0 1.0 3.0 0.00 0.00 0.00 72 1013.9
20210622121443 52 0 1.0 3.0 0.00 0.00 0.00 72 1013.9
20210622121336 52 0 1.0 2.0 0.00 0.00 0.00 72 1013.9
20210622121229 52 0 1.0 3.0 0.00 0.00 0.00 72 1013.9
20210622121126 52 0 0.0 3.0 0.00 0.00 0.00 72 1013.9
20210622121021 52 0 0.0 3.0 0.00 0.00 0.00 73 1013.9
20210622120914 52 0 0.0 3.0 0.00 0.00 0.00 73 1013.9
20210622120810 52 0 0.0 3.0 0.00 0.00 0.00 73 1013.9
20210622120707 51 0 0.0 3.0 0.00 0.00 0.00 73 1013.9
20210622120603 51 0 1.0 3.0 0.00 0.00 0.00 74 1013.9
20210622120456 51 0 1.0 3.0 0.00 0.00 0.00 74 1013.9
20210622120352 51 0 1.0 3.0 0.00 0.00 0.00 74 1013.9
20210622120246 51 0 1.0 3.0 0.00 0.00 0.00 74 1013.9
20210622120141 51 0 1.0 3.0 0.00 0.00 0.00 74 1013.9
20210622120036 51 0 1.0 3.0 0.00 0.00 0.00 74 1013.9
20210622115933 50 0 1.0 3.0 0.00 0.00 0.00 74 1013.9
20210622115828 50 0 1.0 3.0 0.00 0.00 0.00 75 1013.9
20210622115720 50 0 1.0 3.0 0.00 0.00 0.00 75 1014.0
20210622115618 50 0 1.0 3.0 0.00 0.00 0.00 75 1013.9
20210622115510 50 0 0.0 3.0 0.00 0.00 0.00 75 1013.9
20210622115405 50 0 0.0 3.0 0.00 0.00 0.00 76 1014.0
20210622115305 50 0 0.0 3.0 0.00 0.00 0.00 76 1013.9
20210622115157 49 0 0.0 2.0 0.00 0.00 0.00 77 1013.9
20210622115051 49 0 0.0 2.0 0.00 0.00 0.00 77 1013.9
20210622114949 49 0 0.0 2.0 0.00 0.00 0.00 77 1013.9
20210622114845 49 0 0.0 1.0 0.00 0.00 0.00 77 1013.9
20210622114740 49 0 0.0 1.0 0.00 0.00 0.00 77 1013.9
20210622114638 49 0 0.0 0.0 0.00 0.00 0.00 77 1013.9
20210622114534 48 0 0.0 0.0 0.00 0.00 0.00 77 1013.9
20210622114428 48 0 0.0 0.0 0.00 0.00 0.00 78 1013.9
20210622114326 48 0 0.0 0.0 0.00 0.00 0.00 78 1013.8
20210622114223 48 0 0.0 0.0 0.00 0.00 0.00 78 1013.8
20210622114120 48 0 0.0 0.0 0.00 0.00 0.00 78 1013.8
20210622114016 48 0 0.0 0.0 0.00 0.00 0.00 78 1013.8
20210622113909 48 0 0.0 0.0 0.00 0.00 0.00 78 1013.8
20210622113805 47 0 0.0 0.0 0.00 0.00 0.00 78 1013.8
20210622113702 47 0 1.0 0.0 0.00 0.00 0.00 78 1013.8
20210622113600 47 0 1.0 3.0 0.00 0.00 0.00 78 1013.8
20210622113453 47 0 1.0 3.0 0.00 0.00 0.00 78 1013.8
20210622113347 47 0 1.0 3.0 0.00 0.00 0.00 78 1013.8
20210622113243 47 0 1.0 3.0 0.00 0.00 0.00 78 1013.8
20210622113140 47 0 1.0 3.0 0.00 0.00 0.00 78 1013.8
20210622113038 47 0 1.0 3.0 0.00 0.00 0.00 78 1013.8
20210622112932 47 0 1.0 3.0 0.00 0.00 0.00 78 1013.8
20210622112828 47 0 1.0 3.0 0.00 0.00 0.00 79 1013.8
20210622112726 47 0 1.0 3.0 0.00 0.00 0.00 79 1013.8
20210622112622 46 0 1.0 3.0 0.00 0.00 0.00 79 1013.8
20210622112520 46 0 1.0 3.0 0.00 0.00 0.00 79 1013.8
20210622112416 46 0 1.0 3.0 0.00 0.00 0.00 79 1013.8
20210622112312 46 0 1.0 3.0 0.00 0.00 0.00 79 1013.9
20210622112210 46 0 1.0 3.0 0.00 0.00 0.00 79 1013.9
20210622112103 46 0 1.0 3.0 0.00 0.00 0.00 79 1013.9
20210622111956 46 0 1.0 2.0 0.00 0.00 0.00 79 1013.9
20210622111852 46 0 1.0 2.0 0.00 0.00 0.00 79 1013.9
20210622111748 46 0 1.0 2.0 0.00 0.00 0.00 78 1013.9
20210622111646 46 0 1.0 2.0 0.00 0.00 0.00 78 1013.9
20210622111541 46 0 1.0 2.0 0.00 0.00 0.00 78 1014.0
20210622111439 46 0 1.0 2.0 0.00 0.00 0.00 78 1013.9
20210622111336 46 0 1.0 2.0 0.00 0.00 0.00 78 1014.0
20210622111233 46 0 1.0 2.0 0.00 0.00 0.00 78 1014.0
20210622111127 46 0 1.0 2.0 0.00 0.00 0.00 78 1014.0
20210622111022 46 0 1.0 2.0 0.00 0.00 0.00 78 1014.0
20210622110917 46 0 1.0 2.0 0.00 0.00 0.00 78 1014.1
20210622110813 46 0 1.0 2.0 0.00 0.00 0.00 78 1014.0
20210622110706 46 0 1.0 2.0 0.00 0.00 0.00 77 1014.0
20210622110604 46 0 1.0 2.0 0.00 0.00 0.00 77 1014.0
20210622110457 46 0 1.0 2.0 0.00 0.00 0.00 77 1014.0
20210622110351 46 0 1.0 2.0 0.00 0.00 0.00 77 1014.0
20210622110248 47 0 1.0 2.0 0.00 0.00 0.00 77 1014.0
20210622110145 47 0 1.0 2.0 0.00 0.00 0.00 77 1014.0
20210622110040 47 0 1.0 2.0 0.00 0.00 0.00 77 1014.0
20210622105937 47 0 1.0 2.0 0.00 0.00 0.00 77 1014.0
20210622105830 47 0 1.0 2.0 0.00 0.00 0.00 77 1014.0
20210622105725 47 0 1.0 2.0 0.00 0.00 0.00 77 1014.1
20210622105622 47 0 1.0 2.0 0.00 0.00 0.00 77 1014.0
20210622105517 47 0 1.0 2.0 0.00 0.00 0.00 77 1014.0
20210622105415 47 0 1.0 2.0 0.00 0.00 0.00 77 1014.0
20210622105313 47 0 1.0 2.0 0.00 0.00 0.00 76 1014.0
20210622105210 47 0 1.0 2.0 0.00 0.00 0.00 76 1014.0
20210622105106 47 0 1.0 2.0 0.00 0.00 0.00 76 1014.0
20210622105000 47 0 1.0 2.0 0.00 0.00 0.00 76 1014.0
20210622104852 47 0 1.0 2.0 0.00 0.00 0.00 76 1014.0
20210622104746 47 0 1.0 2.0 0.00 0.00 0.00 76 1014.0
20210622104641 47 0 1.0 2.0 0.00 0.00 0.00 76 1014.1
20210622104536 47 0 1.0 2.0 0.00 0.00 0.00 76 1014.0
20210622104432 47 0 1.0 2.0 0.00 0.00 0.00 76 1014.1
20210622104325 47 0 1.0 2.0 0.00 0.00 0.00 76 1014.1
20210622104218 47 0 1.0 2.0 0.00 0.00 0.00 76 1014.1
20210622104114 47 0 1.0 2.0 0.00 0.00 0.00 76 1014.1
20210622104010 47 0 1.0 1.0 0.00 0.00 0.00 76 1014.1
20210622103903 47 0 1.0 1.0 0.00 0.00 0.00 76 1014.1
20210622103756 47 0 1.0 1.0 0.00 0.00 0.00 76 1014.2
20210622103654 47 0 1.0 1.0 0.00 0.00 0.00 76 1014.2
20210622103551 47 0 1.0 1.0 0.00 0.00 0.00 76 1014.2
20210622103446 47 0 1.0 1.0 0.00 0.00 0.00 76 1014.2
20210622103341 47 0 1.0 1.0 0.00 0.00 0.00 76 1014.2
20210622103237 47 0 1.0 1.0 0.00 0.00 0.00 76 1014.2
20210622103134 47 0 1.0 1.0 0.00 0.00 0.00 76 1014.2
20210622103027 47 0 1.0 1.0 0.00 0.00 0.00 76 1014.2
20210622102920 47 0 1.0 1.0 0.00 0.00 0.00 76 1014.2
20210622102813 47 0 1.0 1.0 0.00 0.00 0.00 76 1014.2
20210622102706 47 0 1.0 1.0 0.00 0.00 0.00 76 1014.2
20210622102600 47 0 1.0 1.0 0.00 0.00 0.00 76 1014.3
20210622102456 47 0 1.0 1.0 0.00 0.00 0.00 76 1014.2
20210622102350 47 0 1.0 1.0 0.00 0.00 0.00 76 1014.2
20210622102246 47 0 1.0 1.0 0.00 0.00 0.00 76 1014.3
20210622102142 47 0 1.0 1.0 0.00 0.00 0.00 76 1014.3
20210622102038 47 0 1.0 1.0 0.00 0.00 0.00 76 1014.3
20210622101933 47 0 1.0 1.0 0.00 0.00 0.00 76 1014.3
20210622101827 47 0 1.0 1.0 0.00 0.00 0.00 76 1014.2
20210622101726 47 0 1.0 1.0 0.00 0.00 0.00 76 1014.2
20210622101621 47 0 0.0 1.0 0.00 0.00 0.00 76 1014.2
20210622101519 47 0 0.0 1.0 0.00 0.00 0.00 76 1014.2
20210622101412 47 0 0.0 1.0 0.00 0.00 0.00 76 1014.2
20210622101307 47 0 0.0 1.0 0.00 0.00 0.00 76 1014.3
20210622101200 47 0 0.0 1.0 0.00 0.00 0.00 76 1014.2
20210622101054 47 0 0.0 1.0 0.00 0.00 0.00 76 1014.2
20210622100950 47 0 0.0 1.0 0.00 0.00 0.00 76 1014.2
20210622100844 47 0 0.0 1.0 0.00 0.00 0.00 76 1014.2
20210622100739 47 0 0.0 1.0 0.00 0.00 0.00 76 1014.1
20210622100634 47 0 0.0 1.0 0.00 0.00 0.00 76 1014.1
20210622100532 47 0 0.0 1.0 0.00 0.00 0.00 76 1014.2
20210622100429 47 0 0.0 1.0 0.00 0.00 0.00 76 1014.1
20210622100326 47 0 0.0 0.0 0.00 0.00 0.00 76 1014.1
20210622100220 47 0 0.0 0.0 0.00 0.00 0.00 75 1014.1
20210622100117 47 0 0.0 0.0 0.00 0.00 0.00 75 1014.1
20210622100011 47 0 0.0 0.0 0.00 0.00 0.00 75 1014.1
20210622095906 47 0 0.0 0.0 0.00 0.00 0.00 75 1014.1
20210622095801 47 0 0.0 0.0 0.00 0.00 0.00 75 1014.1
20210622095658 47 0 0.0 0.0 0.00 0.00 0.00 75 1014.1
20210622095555 47 0 0.0 0.0 0.00 0.00 0.00 75 1014.1
20210622095448 47 0 0.0 0.0 0.00 0.00 0.00 75 1014.1
20210622095342 47 0 0.0 1.0 0.00 0.00 0.00 75 1014.1
20210622095235 47 0 0.0 1.0 0.00 0.00 0.00 75 1014.1
20210622095128 47 0 0.0 1.0 0.00 0.00 0.00 75 1014.1
20210622095024 47 0 0.0 1.0 0.00 0.00 0.00 75 1014.1
20210622094923 47 0 0.0 1.0 0.00 0.00 0.00 75 1014.1
20210622094816 47 0 0.0 1.0 0.00 0.00 0.00 75 1014.1
20210622094711 47 0 0.0 1.0 0.00 0.00 0.00 75 1014.1
20210622094607 47 0 0.0 0.0 0.00 0.00 0.00 75 1014.1
20210622094504 47 0 0.0 0.0 0.00 0.00 0.00 75 1014.1
20210622094400 47 0 0.0 0.0 0.00 0.00 0.00 75 1014.1
20210622094257 48 0 0.0 2.0 0.00 0.00 0.00 75 1014.2
20210622094150 48 0 0.0 2.0 0.00 0.00 0.00 75 1014.2
20210622094046 48 0 0.0 2.0 0.00 0.00 0.00 75 1014.2
20210622093940 48 0 0.0 2.0 0.00 0.00 0.00 75 1014.2
20210622093837 48 0 0.0 2.0 0.00 0.00 0.00 74 1014.2
20210622093735 48 0 0.0 2.0 0.00 0.00 0.00 74 1014.2
20210622093627 48 0 0.0 2.0 0.00 0.00 0.00 74 1014.2
20210622093522 48 0 0.0 2.0 0.00 0.00 0.00 74 1014.2
20210622093419 48 0 0.0 2.0 0.00 0.00 0.00 74 1014.2
20210622093312 48 0 0.0 2.0 0.00 0.00 0.00 74 1014.2
20210622093205 48 0 0.0 2.0 0.00 0.00 0.00 74 1014.2
20210622093103 48 0 0.0 2.0 0.00 0.00 0.00 74 1014.2
20210622092956 48 0 0.0 2.0 0.00 0.00 0.00 74 1014.2
20210622092849 48 0 0.0 2.0 0.00 0.00 0.00 74 1014.3
20210622092742 48 0 0.0 1.0 0.00 0.00 0.00 74 1014.2
20210622092639 48 0 0.0 1.0 0.00 0.00 0.00 74 1014.2
20210622092533 48 0 0.0 1.0 0.00 0.00 0.00 74 1014.2
20210622092429 48 0 0.0 1.0 0.00 0.00 0.00 74 1014.2
20210622092325 47 0 0.0 1.0 0.00 0.00 0.00 74 1014.2
20210622092218 47 0 0.0 1.0 0.00 0.00 0.00 74 1014.2
20210622092116 47 0 0.0 1.0 0.00 0.00 0.00 74 1014.2
20210622092010 47 0 1.0 1.0 0.00 0.00 0.00 74 1014.2
20210622091904 47 0 1.0 2.0 0.00 0.00 0.00 74 1014.2
20210622091801 47 0 1.0 2.0 0.00 0.00 0.00 74 1014.2
20210622091700 47 0 1.0 2.0 0.00 0.00 0.00 73 1014.2
20210622091553 47 0 1.0 2.0 0.00 0.00 0.00 73 1014.2
20210622091447 47 0 1.0 2.0 0.00 0.00 0.00 73 1014.2
20210622091344 47 0 1.0 2.0 0.00 0.00 0.00 73 1014.2
20210622091242 47 0 1.0 2.0 0.00 0.00 0.00 73 1014.2
20210622091135 47 0 1.0 2.0 0.00 0.00 0.00 73 1014.2
20210622091033 47 0 1.0 2.0 0.00 0.00 0.00 73 1014.2
20210622090928 47 0 1.0 2.0 0.00 0.00 0.00 73 1014.2
20210622090824 48 0 1.0 2.0 0.00 0.00 0.00 73 1014.2
20210622090720 48 0 1.0 2.0 0.00 0.00 0.00 73 1014.1
20210622090616 48 0 1.0 2.0 0.00 0.00 0.00 73 1014.2
20210622090511 48 0 1.0 2.0 0.00 0.00 0.00 73 1014.2
20210622090409 48 0 1.0 2.0 0.00 0.00 0.00 73 1014.2
20210622090302 48 0 1.0 2.0 0.00 0.00 0.00 73 1014.2
20210622090159 48 0 0.0 2.0 0.00 0.00 0.00 73 1014.2
20210622090053 48 0 0.0 2.0 0.00 0.00 0.00 73 1014.2
20210622085947 48 0 1.0 2.0 0.00 0.00 0.00 73 1014.2
20210622085843 48 0 0.0 2.0 0.00 0.00 0.00 73 1014.2
20210622085738 48 0 0.0 2.0 0.00 0.00 0.00 73 1014.2
20210622085631 48 0 0.0 2.0 0.00 0.00 0.00 73 1014.2
20210622085525 48 0 0.0 2.0 0.00 0.00 0.00 73 1014.2
20210622085420 48 0 0.0 2.0 0.00 0.00 0.00 73 1014.2
20210622085313 48 0 0.0 2.0 0.00 0.00 0.00 72 1014.2
20210622085210 48 0 0.0 2.0 0.00 0.00 0.00 72 1014.2
20210622085106 48 0 0.0 2.0 0.00 0.00 0.00 72 1014.2
20210622085004 48 0 0.0 2.0 0.00 0.00 0.00 72 1014.2
20210622084857 48 0 0.0 1.0 0.00 0.00 0.00 72 1014.1
20210622084755 48 0 0.0 1.0 0.00 0.00 0.00 72 1014.2
20210622084653 48 0 0.0 1.0 0.00 0.00 0.00 71 1014.1
20210622084546 48 0 0.0 1.0 0.00 0.00 0.00 71 1014.1
20210622084439 48 0 0.0 1.0 0.00 0.00 0.00 71 1014.1
20210622084337 48 0 0.0 1.0 0.00 0.00 0.00 71 1014.2
20210622084233 48 0 1.0 1.0 0.00 0.00 0.00 71 1014.2
20210622084128 48 0 1.0 1.0 0.00 0.00 0.00 71 1014.1
20210622084020 49 0 1.0 2.0 0.00 0.00 0.00 71 1014.2
20210622083919 49 0 1.0 2.0 0.00 0.00 0.00 71 1014.2
20210622083817 49 0 1.0 2.0 0.00 0.00 0.00 71 1014.2
20210622083713 49 0 1.0 2.0 0.00 0.00 0.00 71 1014.1
20210622083607 49 0 1.0 2.0 0.00 0.00 0.00 71 1014.2
20210622083505 49 0 1.0 2.0 0.00 0.00 0.00 71 1014.2
20210622083358 49 0 1.0 2.0 0.00 0.00 0.00 71 1014.2
20210622083254 49 0 1.0 2.0 0.00 0.00 0.00 70 1014.1
20210622083152 49 0 1.0 2.0 0.00 0.00 0.00 70 1014.1
20210622083050 49 0 1.0 2.0 0.00 0.00 0.00 70 1014.1
20210622082946 49 0 1.0 2.0 0.00 0.00 0.00 70 1014.2
20210622082840 49 0 1.0 2.0 0.00 0.00 0.00 70 1014.1
20210622082737 49 0 1.0 2.0 0.00 0.00 0.00 70 1014.1
20210622082635 49 0 1.0 2.0 0.00 0.00 0.00 69 1014.1
20210622082528 49 0 1.0 2.0 0.00 0.00 0.00 69 1014.1
20210622082422 49 0 1.0 2.0 0.00 0.00 0.00 69 1014.1
20210622082314 50 0 1.0 2.0 0.00 0.00 0.00 69 1014.1
20210622082208 50 0 1.0 2.0 0.00 0.00 0.00 69 1014.2
20210622082103 50 0 0.0 2.0 0.00 0.00 0.00 69 1014.1
20210622081958 50 0 0.0 1.0 0.00 0.00 0.00 69 1014.1
20210622081853 50 0 0.0 1.0 0.00 0.00 0.00 69 1014.1
20210622081750 50 0 0.0 1.0 0.00 0.00 0.00 69 1014.2
20210622081644 50 0 0.0 1.0 0.00 0.00 0.00 70 1014.1
20210622081540 50 0 0.0 1.0 0.00 0.00 0.00 70 1014.1
20210622081435 50 0 0.0 1.0 0.00 0.00 0.00 70 1014.1
20210622081333 50 0 0.0 0.0 0.00 0.00 0.00 70 1014.1
20210622081229 50 0 0.0 0.0 0.00 0.00 0.00 70 1014.1
20210622081127 50 0 0.0 0.0 0.00 0.00 0.00 70 1014.1
20210622081022 50 0 0.0 0.0 0.00 0.00 0.00 70 1014.1
20210622080920 50 0 0.0 0.0 0.00 0.00 0.00 70 1014.1
20210622080814 50 0 0.0 0.0 0.00 0.00 0.00 70 1014.1
20210622080710 50 0 0.0 0.0 0.00 0.00 0.00 70 1014.1
20210622080605 50 0 0.0 0.0 0.00 0.00 0.00 71 1014.0
20210622080459 50 0 0.0 0.0 0.00 0.00 0.00 71 1014.0
20210622080354 50 0 0.0 0.0 0.00 0.00 0.00 71 1014.0
20210622080249 50 0 0.0 0.0 0.00 0.00 0.00 71 1014.1
20210622080144 49 0 0.0 0.0 0.00 0.00 0.00 71 1014.0
20210622080037 49 0 0.0 0.0 0.00 0.00 0.00 71 1014.1
20210622075930 49 0 0.0 0.0 0.00 0.00 0.00 72 1014.1
20210622075825 49 0 0.0 0.0 0.00 0.00 0.00 72 1014.1
20210622075718 49 0 0.0 0.0 0.00 0.00 0.00 72 1014.1
20210622075611 49 0 0.0 0.0 0.00 0.00 0.00 72 1014.1
20210622075506 49 0 0.0 0.0 0.00 0.00 0.00 72 1014.1
20210622075404 49 0 0.0 0.0 0.00 0.00 0.00 72 1014.1
20210622075300 49 0 0.0 0.0 0.00 0.00 0.00 72 1014.1
20210622075157 49 0 0.0 0.0 0.00 0.00 0.00 72 1014.1
20210622075055 49 0 0.0 0.0 0.00 0.00 0.00 72 1014.0
20210622074949 49 0 0.0 0.0 0.00 0.00 0.00 72 1014.1
20210622074844 49 0 0.0 0.0 0.00 0.00 0.00 72 1014.1
20210622074738 49 0 0.0 0.0 0.00 0.00 0.00 72 1014.1
20210622074635 49 0 0.0 0.0 0.00 0.00 0.00 72 1014.1
20210622074530 49 0 0.0 0.0 0.00 0.00 0.00 72 1014.1
20210622074425 49 0 0.0 0.0 0.00 0.00 0.00 72 1014.1
20210622074321 49 0 0.0 0.0 0.00 0.00 0.00 72 1014.0
20210622074215 49 0 0.0 0.0 0.00 0.00 0.00 72 1014.1
20210622074112 49 0 0.0 0.0 0.00 0.00 0.00 72 1014.1
20210622074008 49 0 0.0 0.0 0.00 0.00 0.00 72 1014.0
20210622073902 49 0 0.0 0.0 0.00 0.00 0.00 72 1014.0
20210622073756 49 0 0.0 0.0 0.00 0.00 0.00 72 1014.0
20210622073652 49 0 0.0 0.0 0.00 0.00 0.00 72 1014.0
20210622073546 49 0 0.0 0.0 0.00 0.00 0.00 72 1014.0
20210622073440 49 0 0.0 0.0 0.00 0.00 0.00 72 1014.0
20210622073334 49 0 0.0 0.0 0.00 0.00 0.00 72 1014.0
20210622073226 49 0 0.0 0.0 0.00 0.00 0.00 72 1014.0
20210622073122 49 0 0.0 0.0 0.00 0.00 0.00 72 1014.0
20210622073018 49 0 0.0 0.0 0.00 0.00 0.00 72 1014.0
20210622072915 49 0 0.0 0.0 0.00 0.00 0.00 72 1013.9
20210622072808 49 0 0.0 0.0 0.00 0.00 0.00 72 1014.0
20210622072703 49 0 0.0 0.0 0.00 0.00 0.00 71 1014.0
20210622072557 49 0 0.0 0.0 0.00 0.00 0.00 71 1013.9
20210622072453 49 0 0.0 0.0 0.00 0.00 0.00 71 1014.0
20210622072349 49 0 0.0 0.0 0.00 0.00 0.00 71 1014.0
20210622072245 49 0 0.0 0.0 0.00 0.00 0.00 71 1014.0
20210622072139 49 0 0.0 0.0 0.00 0.00 0.00 71 1014.1
20210622072035 49 0 0.0 0.0 0.00 0.00 0.00 71 1014.0
20210622071932 49 0 0.0 0.0 0.00 0.00 0.00 71 1014.0
20210622071825 49 0 0.0 0.0 0.00 0.00 0.00 71 1014.0
20210622071721 49 0 0.0 0.0 0.00 0.00 0.00 71 1014.0
20210622071614 49 0 0.0 1.0 0.00 0.00 0.00 71 1014.0
20210622071508 49 0 0.0 1.0 0.00 0.00 0.00 71 1013.9
20210622071406 49 0 0.0 0.0 0.00 0.00 0.00 71 1013.9
20210622071301 49 0 0.0 0.0 0.00 0.00 0.00 71 1013.9
20210622071155 49 0 0.0 0.0 0.00 0.00 0.00 71 1013.9
20210622071051 49 0 0.0 0.0 0.00 0.00 0.00 71 1013.9
20210622070943 49 0 0.0 0.0 0.00 0.00 0.00 71 1014.0
20210622070841 49 0 0.0 1.0 0.00 0.00 0.00 71 1013.9
20210622070735 49 0 0.0 1.0 0.00 0.00 0.00 71 1013.9
20210622070631 49 0 0.0 0.0 0.00 0.00 0.00 71 1013.9
20210622070528 49 0 0.0 0.0 0.00 0.00 0.00 71 1014.0
20210622070424 49 0 0.0 0.0 0.00 0.00 0.00 71 1014.0
20210622070321 49 0 0.0 0.0 0.00 0.00 0.00 71 1014.0
20210622070214 49 0 0.0 0.0 0.00 0.00 0.00 71 1014.0
20210622070108 49 0 0.0 0.0 0.00 0.00 0.00 71 1014.0
20210622070002 49 0 0.0 0.0 0.00 0.00 0.00 71 1014.0
20210622065858 49 0 0.0 0.0 0.00 0.00 0.00 71 1014.0
20210622065755 49 0 0.0 0.0 0.00 0.00 0.00 71 1014.0
20210622065651 49 0 0.0 0.0 0.00 0.00 0.00 71 1014.1
20210622065545 49 0 0.0 0.0 0.00 0.00 0.00 72 1014.0
20210622065442 49 0 0.0 0.0 0.00 0.00 0.00 71 1014.0
20210622065335 49 0 0.0 0.0 0.00 0.00 0.00 72 1014.0
20210622065229 49 0 0.0 0.0 0.00 0.00 0.00 72 1014.0
20210622065127 49 0 0.0 0.0 0.00 0.00 0.00 72 1014.0
20210622065022 49 0 0.0 0.0 0.00 0.00 0.00 73 1014.0
20210622064920 49 0 0.0 0.0 0.00 0.00 0.00 73 1014.0
20210622064813 49 0 0.0 0.0 0.00 0.00 0.00 73 1014.1
20210622064708 49 0 0.0 0.0 0.00 0.00 0.00 73 1014.1
20210622064604 49 0 0.0 0.0 0.00 0.00 0.00 73 1014.1
20210622064457 49 0 0.0 0.0 0.00 0.00 0.00 73 1014.2
20210622064353 49 0 0.0 0.0 0.00 0.00 0.00 72 1014.2
20210622064250 49 0 0.0 0.0 0.00 0.00 0.00 72 1014.2
20210622064146 49 0 0.0 0.0 0.00 0.00 0.00 72 1014.2
20210622064043 49 0 0.0 0.0 0.00 0.00 0.00 72 1014.2
20210622063936 49 0 0.0 0.0 0.00 0.00 0.00 73 1014.2
20210622063832 49 0 0.0 0.0 0.00 0.00 0.00 73 1014.2
20210622063730 49 0 0.0 0.0 0.00 0.00 0.00 73 1014.2
20210622063625 49 0 0.0 0.0 0.00 0.00 0.00 73 1014.2
20210622063519 49 0 0.0 0.0 0.00 0.00 0.00 73 1014.2
20210622063414 49 0 0.0 0.0 0.00 0.00 0.00 72 1014.2
20210622063310 49 0 0.0 0.0 0.00 0.00 0.00 72 1014.3
20210622063204 49 0 0.0 0.0 0.00 0.00 0.00 72 1014.3
20210622063100 49 0 0.0 0.0 0.00 0.00 0.00 71 1014.3
20210622062957 49 0 0.0 0.0 0.00 0.00 0.00 71 1014.3
20210622062852 49 0 0.0 0.0 0.00 0.00 0.00 72 1014.3
20210622062747 49 0 0.0 0.0 0.00 0.00 0.00 73 1014.3
20210622062640 49 0 0.0 0.0 0.00 0.00 0.00 73 1014.3
20210622062537 49 0 0.0 0.0 0.00 0.00 0.00 72 1014.3
20210622062432 49 0 0.0 0.0 0.00 0.00 0.00 72 1014.3
20210622062326 49 0 0.0 0.0 0.00 0.00 0.00 73 1014.3
20210622062219 49 0 0.0 0.0 0.00 0.00 0.00 73 1014.4
20210622062114 49 0 0.0 0.0 0.00 0.00 0.00 73 1014.3
20210622062006 48 0 0.0 0.0 0.00 0.00 0.00 73 1014.3
20210622061859 48 0 0.0 0.0 0.00 0.00 0.00 73 1014.4
20210622061754 48 0 0.0 0.0 0.00 0.00 0.00 73 1014.4
20210622061649 49 0 0.0 0.0 0.00 0.00 0.00 72 1014.4
20210622061542 49 0 0.0 0.0 0.00 0.00 0.00 72 1014.4
20210622061438 49 0 0.0 0.0 0.00 0.00 0.00 72 1014.4
20210622061332 49 0 0.0 0.0 0.00 0.00 0.00 72 1014.4
20210622061227 49 0 0.0 0.0 0.00 0.00 0.00 71 1014.4
20210622061125 49 0 0.0 0.0 0.00 0.00 0.00 71 1014.4
20210622061017 49 0 0.0 0.0 0.00 0.00 0.00 71 1014.4
20210622060914 49 0 0.0 0.0 0.00 0.00 0.00 71 1014.4
20210622060808 49 0 0.0 0.0 0.00 0.00 0.00 71 1014.4
20210622060702 49 0 0.0 0.0 0.00 0.00 0.00 70 1014.4
20210622060556 49 0 0.0 0.0 0.00 0.00 0.00 70 1014.4
20210622060449 50 0 0.0 0.0 0.00 0.00 0.00 69 1014.4
20210622060345 50 0 0.0 0.0 0.00 0.00 0.00 69 1014.4
20210622060241 50 0 0.0 0.0 0.00 0.00 0.00 69 1014.5
20210622060140 50 0 0.0 0.0 0.00 0.00 0.00 69 1014.4
20210622060036 50 0 0.0 0.0 0.00 0.00 0.00 69 1014.4
20210622055934 50 0 0.0 0.0 0.00 0.00 0.00 69 1014.5
20210622055831 50 0 0.0 0.0 0.00 0.00 0.00 70 1014.4
20210622055727 50 0 0.0 0.0 0.00 0.00 0.00 70 1014.5
20210622055625 50 0 0.0 0.0 0.00 0.00 0.00 70 1014.4
20210622055521 50 0 0.0 0.0 0.00 0.00 0.00 70 1014.4
20210622055415 50 0 0.0 0.0 0.00 0.00 0.00 70 1014.4
20210622055312 50 0 0.0 0.0 0.00 0.00 0.00 70 1014.4
20210622055205 50 0 0.0 0.0 0.00 0.00 0.00 70 1014.4
20210622055101 50 0 0.0 0.0 0.00 0.00 0.00 70 1014.4
20210622054955 50 0 0.0 0.0 0.00 0.00 0.00 70 1014.4
20210622054851 50 0 0.0 0.0 0.00 0.00 0.00 70 1014.5
20210622054745 50 0 0.0 0.0 0.00 0.00 0.00 70 1014.4
20210622054640 50 0 0.0 0.0 0.00 0.00 0.00 71 1014.5
20210622054534 50 0 0.0 0.0 0.00 0.00 0.00 71 1014.5
20210622054429 50 0 0.0 0.0 0.00 0.00 0.00 71 1014.5
20210622054327 50 0 0.0 0.0 0.00 0.00 0.00 71 1014.4
20210622054220 50 0 0.0 1.0 0.00 0.00 0.00 71 1014.4
20210622054115 50 0 0.0 1.0 0.00 0.00 0.00 71 1014.4
20210622054008 50 0 0.0 1.0 0.00 0.00 0.00 71 1014.4
20210622053904 50 0 0.0 1.0 0.00 0.00 0.00 71 1014.4
20210622053759 50 0 0.0 1.0 0.00 0.00 0.00 71 1014.4
20210622053654 50 0 0.0 1.0 0.00 0.00 0.00 71 1014.4
20210622053547 50 0 0.0 1.0 0.00 0.00 0.00 71 1014.4
20210622053444 50 0 0.0 1.0 0.00 0.00 0.00 71 1014.4
20210622053338 50 0 0.0 0.0 0.00 0.00 0.00 71 1014.4
20210622053234 50 0 0.0 0.0 0.00 0.00 0.00 71 1014.4
20210622053130 50 0 0.0 0.0 0.00 0.00 0.00 71 1014.4
20210622053027 50 0 0.0 0.0 0.00 0.00 0.00 71 1014.4
20210622052921 50 0 0.0 0.0 0.00 0.00 0.00 71 1014.4
20210622052815 50 0 0.0 0.0 0.00 0.00 0.00 71 1014.4
20210622052712 50 0 0.0 0.0 0.00 0.00 0.00 71 1014.4
20210622052608 50 0 0.0 0.0 0.00 0.00 0.00 71 1014.4
20210622052502 50 0 0.0 0.0 0.00 0.00 0.00 71 1014.4
20210622052357 50 0 0.0 0.0 0.00 0.00 0.00 71 1014.4
20210622052253 50 0 0.0 0.0 0.00 0.00 0.00 71 1014.4
20210622052146 50 0 0.0 0.0 0.00 0.00 0.00 71 1014.4
20210622052039 50 0 0.0 0.0 0.00 0.00 0.00 71 1014.4
20210622051936 50 0 0.0 0.0 0.00 0.00 0.00 71 1014.4
20210622051833 50 0 0.0 0.0 0.00 0.00 0.00 70 1014.5
20210622051730 50 0 0.0 0.0 0.00 0.00 0.00 70 1014.4
20210622051624 50 0 0.0 0.0 0.00 0.00 0.00 70 1014.5
20210622051520 50 0 0.0 0.0 0.00 0.00 0.00 70 1014.4
20210622051416 51 0 0.0 0.0 0.00 0.00 0.00 69 1014.5
20210622051311 51 0 0.0 0.0 0.00 0.00 0.00 69 1014.5
20210622051207 51 0 0.0 0.0 0.00 0.00 0.00 69 1014.4
20210622051103 51 0 0.0 0.0 0.00 0.00 0.00 68 1014.4
20210622051001 51 0 0.0 0.0 0.00 0.00 0.00 68 1014.4
20210622050857 51 0 0.0 0.0 0.00 0.00 0.00 68 1014.4
20210622050751 51 0 0.0 0.0 0.00 0.00 0.00 68 1014.4
20210622050648 51 0 0.0 0.0 0.00 0.00 0.00 68 1014.4
20210622050544 51 0 0.0 0.0 0.00 0.00 0.00 68 1014.4
20210622050440 51 0 0.0 0.0 0.00 0.00 0.00 67 1014.4
20210622050334 51 0 0.0 0.0 0.00 0.00 0.00 67 1014.4
20210622050231 51 0 0.0 0.0 0.00 0.00 0.00 67 1014.4
20210622050126 51 0 0.0 0.0 0.00 0.00 0.00 67 1014.4
20210622050024 51 0 0.0 0.0 0.00 0.00 0.00 67 1014.4
20210622045916 51 0 0.0 0.0 0.00 0.00 0.00 67 1014.4
20210622045810 51 0 0.0 0.0 0.00 0.00 0.00 67 1014.4
20210622045703 51 0 0.0 0.0 0.00 0.00 0.00 67 1014.4
20210622045556 51 0 0.0 0.0 0.00 0.00 0.00 67 1014.4
20210622045451 51 0 0.0 0.0 0.00 0.00 0.00 67 1014.4
20210622045344 51 0 0.0 0.0 0.00 0.00 0.00 67 1014.4
20210622045238 51 0 0.0 0.0 0.00 0.00 0.00 67 1014.4
20210622045135 51 0 0.0 0.0 0.00 0.00 0.00 67 1014.4
20210622045032 51 0 0.0 0.0 0.00 0.00 0.00 67 1014.4
20210622044926 51 0 0.0 0.0 0.00 0.00 0.00 67 1014.4
20210622044823 51 0 0.0 0.0 0.00 0.00 0.00 66 1014.4
20210622044721 51 0 0.0 0.0 0.00 0.00 0.00 66 1014.4
20210622044616 51 0 0.0 0.0 0.00 0.00 0.00 66 1014.4
20210622044515 51 0 0.0 0.0 0.00 0.00 0.00 66 1014.4
20210622044411 51 0 0.0 0.0 0.00 0.00 0.00 65 1014.3
20210622044308 51 0 0.0 0.0 0.00 0.00 0.00 65 1014.4
20210622044201 51 0 0.0 0.0 0.00 0.00 0.00 65 1014.3
20210622044059 51 0 0.0 0.0 0.00 0.00 0.00 65 1014.4
20210622043957 51 0 0.0 0.0 0.00 0.00 0.00 65 1014.4
20210622043850 51 0 0.0 0.0 0.00 0.00 0.00 65 1014.3
20210622043743 51 0 0.0 0.0 0.00 0.00 0.00 65 1014.4
20210622043640 52 0 0.0 0.0 0.00 0.00 0.00 65 1014.3
20210622043536 52 0 0.0 0.0 0.00 0.00 0.00 65 1014.4
20210622043431 52 0 0.0 0.0 0.00 0.00 0.00 65 1014.3
20210622043329 52 0 0.0 0.0 0.00 0.00 0.00 65 1014.2
20210622043223 52 0 0.0 0.0 0.00 0.00 0.00 66 1014.3
20210622043118 52 0 0.0 2.0 0.00 0.00 0.00 66 1014.3
20210622043012 52 0 0.0 2.0 0.00 0.00 0.00 66 1014.3
20210622042908 52 0 0.0 2.0 0.00 0.00 0.00 66 1014.3
20210622042805 52 0 0.0 2.0 0.00 0.00 0.00 66 1014.3
20210622042703 51 0 0.0 2.0 0.00 0.00 0.00 66 1014.3
20210622042557 51 0 0.0 1.0 0.00 0.00 0.00 67 1014.3
20210622042453 51 0 0.0 1.0 0.00 0.00 0.00 67 1014.3
20210622042347 51 0 0.0 1.0 0.00 0.00 0.00 67 1014.3
20210622042244 51 0 0.0 1.0 0.00 0.00 0.00 67 1014.3
20210622042139 51 0 0.0 1.0 0.00 0.00 0.00 67 1014.4
20210622042037 51 0 0.0 0.0 0.00 0.00 0.00 66 1014.4
20210622041931 51 0 0.0 0.0 0.00 0.00 0.00 66 1014.4
20210622041829 51 0 0.0 0.0 0.00 0.00 0.00 66 1014.5
20210622041724 50 0 0.0 0.0 0.00 0.00 0.00 66 1014.4
20210622041618 50 0 0.0 0.0 0.00 0.00 0.00 66 1014.4
20210622041515 50 0 0.0 0.0 0.00 0.00 0.00 65 1014.4
20210622041408 51 0 0.0 0.0 0.00 0.00 0.00 65 1014.5
20210622041302 51 0 0.0 0.0 0.00 0.00 0.00 64 1014.4
20210622041158 51 0 0.0 0.0 0.00 0.00 0.00 64 1014.4
20210622041056 51 0 0.0 0.0 0.00 0.00 0.00 66 1014.4
20210622040950 51 0 0.0 0.0 0.00 0.00 0.00 67 1014.4
20210622040847 51 0 0.0 0.0 0.00 0.00 0.00 67 1014.5
20210622040742 51 0 0.0 0.0 0.00 0.00 0.00 68 1014.4
20210622040638 51 0 0.0 0.0 0.00 0.00 0.00 68 1014.5
20210622040533 51 0 0.0 0.0 0.00 0.00 0.00 68 1014.5
20210622040430 51 0 0.0 0.0 0.00 0.00 0.00 68 1014.5
20210622040323 50 0 0.0 0.0 0.00 0.00 0.00 68 1014.5
20210622040218 50 0 0.0 0.0 0.00 0.00 0.00 68 1014.5
20210622040113 50 0 0.0 0.0 0.00 0.00 0.00 68 1014.5
20210622040006 50 0 0.0 0.0 0.00 0.00 0.00 67 1014.5
20210622035858 50 0 0.0 0.0 0.00 0.00 0.00 67 1014.6
20210622035752 50 0 0.0 0.0 0.00 0.00 0.00 67 1014.6
20210622035645 50 0 0.0 0.0 0.00 0.00 0.00 67 1014.6
20210622035542 50 0 0.0 0.0 0.00 0.00 0.00 67 1014.6
20210622035440 50 0 0.0 0.0 0.00 0.00 0.00 67 1014.6
20210622035334 50 0 0.0 0.0 0.00 0.00 0.00 67 1014.6
20210622035230 50 0 0.0 0.0 0.00 0.00 0.00 67 1014.6
20210622035124 50 0 0.0 0.0 0.00 0.00 0.00 67 1014.6
20210622035017 50 0 0.0 0.0 0.00 0.00 0.00 67 1014.6
20210622034913 50 0 0.0 0.0 0.00 0.00 0.00 67 1014.6
20210622034807 50 0 0.0 0.0 0.00 0.00 0.00 67 1014.6
20210622034703 50 0 0.0 0.0 0.00 0.00 0.00 67 1014.6
20210622034557 50 0 0.0 0.0 0.00 0.00 0.00 67 1014.6
20210622034452 50 0 0.0 0.0 0.00 0.00 0.00 68 1014.7
20210622034350 50 0 0.0 0.0 0.00 0.00 0.00 68 1014.7
20210622034246 50 0 0.0 0.0 0.00 0.00 0.00 68 1014.7
20210622034142 50 0 0.0 0.0 0.00 0.00 0.00 68 1014.7
20210622034038 50 0 0.0 0.0 0.00 0.00 0.00 67 1014.6
20210622033932 50 0 0.0 0.0 0.00 0.00 0.00 67 1014.7
20210622033829 51 0 0.0 0.0 0.00 0.00 0.00 67 1014.6
20210622033727 51 0 0.0 0.0 0.00 0.00 0.00 67 1014.6
20210622033625 51 0 0.0 0.0 0.00 0.00 0.00 67 1014.6
20210622033520 51 0 0.0 0.0 0.00 0.00 0.00 67 1014.6
20210622033413 51 0 0.0 0.0 0.00 0.00 0.00 67 1014.6
20210622033306 51 0 0.0 0.0 0.00 0.00 0.00 67 1014.6
20210622033200 51 0 0.0 0.0 0.00 0.00 0.00 67 1014.6
20210622033052 51 0 0.0 0.0 0.00 0.00 0.00 66 1014.6
20210622032946 51 0 0.0 0.0 0.00 0.00 0.00 66 1014.5
20210622032841 51 0 0.0 0.0 0.00 0.00 0.00 65 1014.6
20210622032734 51 0 0.0 0.0 0.00 0.00 0.00 65 1014.6
20210622032627 51 0 0.0 0.0 0.00 0.00 0.00 64 1014.6
20210622032524 51 0 0.0 0.0 0.00 0.00 0.00 64 1014.6
20210622032419 51 0 0.0 0.0 0.00 0.00 0.00 63 1014.5
20210622032313 51 0 0.0 0.0 0.00 0.00 0.00 63 1014.5
20210622032206 52 0 0.0 0.0 0.00 0.00 0.00 62 1014.5
20210622032100 52 0 0.0 0.0 0.00 0.00 0.00 62 1014.5
20210622031957 52 0 0.0 0.0 0.00 0.00 0.00 65 1014.5
20210622031852 52 0 0.0 0.0 0.00 0.00 0.00 65 1014.5
20210622031749 52 0 0.0 0.0 0.00 0.00 0.00 65 1014.5
20210622031642 52 0 0.0 0.0 0.00 0.00 0.00 65 1014.5
20210622031536 52 0 0.0 0.0 0.00 0.00 0.00 65 1014.5
20210622031434 52 0 0.0 0.0 0.00 0.00 0.00 65 1014.5
20210622031328 52 0 0.0 0.0 0.00 0.00 0.00 65 1014.5
20210622031225 52 0 0.0 0.0 0.00 0.00 0.00 64 1014.5
20210622031119 52 0 0.0 0.0 0.00 0.00 0.00 63 1014.6
20210622031017 52 0 0.0 0.0 0.00 0.00 0.00 63 1014.6
20210622030911 52 0 0.0 0.0 0.00 0.00 0.00 63 1014.6
20210622030807 52 0 0.0 0.0 0.00 0.00 0.00 63 1014.6
20210622030702 52 0 0.0 0.0 0.00 0.00 0.00 63 1014.6
20210622030559 52 0 0.0 0.0 0.00 0.00 0.00 63 1014.6
20210622030457 52 0 0.0 0.0 0.00 0.00 0.00 63 1014.6
20210622030351 52 0 0.0 0.0 0.00 0.00 0.00 63 1014.6
20210622030249 52 0 0.0 0.0 0.00 0.00 0.00 63 1014.6
20210622030143 52 0 0.0 0.0 0.00 0.00 0.00 63 1014.6
20210622030041 52 0 0.0 0.0 0.00 0.00 0.00 63 1014.6
20210622025937 52 0 0.0 0.0 0.00 0.00 0.00 63 1014.6
20210622025833 52 0 0.0 0.0 0.00 0.00 0.00 63 1014.6
20210622025731 52 0 0.0 0.0 0.00 0.00 0.00 63 1014.6
20210622025627 52 0 0.0 0.0 0.00 0.00 0.00 63 1014.6
20210622025521 52 0 0.0 0.0 0.00 0.00 0.00 63 1014.6
20210622025416 52 0 0.0 0.0 0.00 0.00 0.00 63 1014.6
20210622025310 52 0 0.0 0.0 0.00 0.00 0.00 63 1014.6
20210622025203 52 0 0.0 0.0 0.00 0.00 0.00 63 1014.6
20210622025057 52 0 0.0 0.0 0.00 0.00 0.00 62 1014.5
20210622024952 52 0 0.0 0.0 0.00 0.00 0.00 62 1014.5
20210622024848 52 0 0.0 0.0 0.00 0.00 0.00 61 1014.5
20210622024741 53 0 0.0 0.0 0.00 0.00 0.00 60 1014.5
20210622024633 53 0 0.0 0.0 0.00 0.00 0.00 58 1014.5
20210622024529 53 0 0.0 0.0 0.00 0.00 0.00 58 1014.5
20210622024425 53 0 0.0 0.0 0.00 0.00 0.00 58 1014.5
20210622024322 53 0 0.0 0.0 0.00 0.00 0.00 58 1014.5
20210622024216 54 0 0.0 0.0 0.00 0.00 0.00 58 1014.5
20210622024114 54 0 0.0 0.0 0.00 0.00 0.00 58 1014.5
20210622024008 54 0 0.0 0.0 0.00 0.00 0.00 58 1014.4
20210622023904 54 0 0.0 0.0 0.00 0.00 0.00 59 1014.4
20210622023757 55 0 0.0 0.0 0.00 0.00 0.00 60 1014.4
20210622023653 55 0 0.0 0.0 0.00 0.00 0.00 60 1014.4
20210622023550 55 0 0.0 0.0 0.00 0.00 0.00 60 1014.4
20210622023444 55 0 0.0 0.0 0.00 0.00 0.00 59 1014.4
20210622023341 55 0 0.0 0.0 0.00 0.00 0.00 59 1014.4
20210622023238 55 0 0.0 0.0 0.00 0.00 0.00 59 1014.4
20210622023136 55 0 0.0 0.0 0.00 0.00 0.00 59 1014.4
20210622023033 55 0 0.0 0.0 0.00 0.00 0.00 58 1014.4
20210622022928 55 0 0.0 0.0 0.00 0.00 0.00 57 1014.4
20210622022822 56 0 0.0 0.0 0.00 0.00 0.00 58 1014.4
20210622022719 56 0 0.0 0.0 0.00 0.00 0.00 58 1014.4
20210622022615 56 0 0.0 0.0 0.00 0.00 0.00 58 1014.4
20210622022507 56 0 0.0 0.0 0.00 0.00 0.00 57 1014.4
20210622022403 56 0 0.0 0.0 0.00 0.00 0.00 57 1014.4
20210622022259 56 0 0.0 0.0 0.00 0.00 0.00 56 1014.4
20210622022156 57 0 0.0 0.0 0.00 0.00 0.00 56 1014.4
20210622022054 57 0 0.0 0.0 0.00 0.00 0.00 56 1014.4
20210622021952 57 0 0.0 0.0 0.00 0.00 0.00 55 1014.4
20210622021847 57 0 0.0 0.0 0.00 0.00 0.00 55 1014.4
20210622021742 57 0 0.0 0.0 0.00 0.00 0.00 54 1014.4
20210622021639 57 0 0.0 0.0 0.00 0.00 0.00 55 1014.4
20210622021532 57 0 0.0 0.0 0.00 0.00 0.00 55 1014.4
20210622021430 57 0 0.0 0.0 0.00 0.00 0.00 54 1014.4
20210622021324 57 0 0.0 0.0 0.00 0.00 0.00 54 1014.4
20210622021218 57 0 0.0 0.0 0.00 0.00 0.00 54 1014.3
20210622021114 58 0 0.0 0.0 0.00 0.00 0.00 53 1014.4
20210622021012 58 0 0.0 0.0 0.00 0.00 0.00 54 1014.4
20210622020906 58 0 0.0 0.0 0.00 0.00 0.00 54 1014.4
20210622020759 58 0 0.0 0.0 0.00 0.00 0.00 54 1014.4
20210622020653 58 0 0.0 0.0 0.00 0.00 0.00 54 1014.5
20210622020548 58 0 0.0 0.0 0.00 0.00 0.00 54 1014.4
20210622020441 58 0 0.0 0.0 0.00 0.00 0.00 54 1014.4
20210622020336 58 0 0.0 0.0 0.00 0.00 0.00 53 1014.4
20210622020234 58 0 0.0 0.0 0.00 0.00 0.00 52 1014.4
20210622020129 59 0 0.0 0.0 0.00 0.00 0.00 53 1014.4
20210622020023 59 0 0.0 0.0 0.00 0.00 0.00 54 1014.5
20210622015921 59 0 0.0 0.0 0.00 0.00 0.00 53 1014.5
20210622015815 59 0 0.0 0.0 0.00 0.00 0.00 52 1014.4
20210622015709 59 0 0.0 0.0 0.00 0.00 0.00 51 1014.4
20210622015607 60 0 0.0 0.0 0.00 0.00 0.00 51 1014.5
20210622015502 60 0 0.0 0.0 0.00 0.00 0.00 50 1014.5
20210622015359 60 0 0.0 0.0 0.00 0.00 0.00 49 1014.5
20210622015253 60 0 0.0 0.0 0.00 0.00 0.00 49 1014.5
20210622015148 60 0 0.0 0.0 0.00 0.00 0.00 49 1014.4
20210622015046 60 0 0.0 0.0 0.00 0.00 0.00 48 1014.4
20210622014943 61 0 0.0 0.0 0.00 0.00 0.00 48 1014.5
20210622014838 61 0 0.0 0.0 0.00 0.00 0.00 48 1014.4
20210622014734 61 0 0.0 0.0 0.00 0.00 0.00 47 1014.4
20210622014630 61 0 0.0 0.0 0.00 0.00 0.00 47 1014.4
20210622014523 61 0 0.0 0.0 0.00 0.00 0.00 47 1014.5
20210622014417 61 0 0.0 0.0 0.00 0.00 0.00 46 1014.6
20210622014310 61 0 0.0 0.0 0.00 0.00 0.00 47 1014.5
20210622014204 61 0 0.0 0.0 0.00 0.00 0.00 46 1014.5
20210622014058 61 0 0.0 0.0 0.00 0.00 0.00 46 1014.6
20210622013955 61 0 0.0 0.0 0.00 0.00 0.00 46 1014.5
20210622013848 61 0 0.0 0.0 0.00 0.00 0.00 45 1014.5
20210622013741 61 0 0.0 0.0 0.00 0.00 0.00 45 1014.6
20210622013638 61 0 0.0 0.0 0.00 0.00 0.00 45 1014.5
20210622013532 61 0 0.0 0.0 0.00 0.00 0.00 45 1014.6
20210622013432 62 0 0.0 0.0 0.00 0.00 0.00 45 1014.6
20210622013324 62 0 0.0 0.0 0.00 0.00 0.00 45 1014.6
20210622013220 62 0 0.0 0.0 0.00 0.00 0.00 45 1014.6
20210622013113 62 0 0.0 0.0 0.00 0.00 0.00 45 1014.5
20210622013010 62 0 0.0 0.0 0.00 0.00 0.00 45 1014.6
20210622012906 62 0 0.0 0.0 0.00 0.00 0.00 45 1014.6
20210622012802 62 0 0.0 0.0 0.00 0.00 0.00 44 1014.6
20210622012659 62 0 0.0 0.0 0.00 0.00 0.00 44 1014.6
20210622012557 62 0 0.0 0.0 0.00 0.00 0.00 45 1014.6
20210622012450 62 0 0.0 0.0 0.00 0.00 0.00 45 1014.6
20210622012344 62 0 0.0 0.0 0.00 0.00 0.00 44 1014.6
20210622012241 62 0 0.0 1.0 0.00 0.00 0.00 44 1014.6
20210622012134 62 0 0.0 1.0 0.00 0.00 0.00 44 1014.6
20210622012029 62 0 0.0 1.0 0.00 0.00 0.00 44 1014.6
20210622011921 62 0 0.0 1.0 0.00 0.00 0.00 45 1014.6
20210622011814 63 0 1.0 1.0 0.00 0.00 0.00 44 1014.6
20210622011709 63 0 1.0 0.0 0.00 0.00 0.00 44 1014.6
20210622011603 63 0 1.0 0.0 0.00 0.00 0.00 44 1014.6
20210622011456 63 0 1.0 0.0 0.00 0.00 0.00 44 1014.6
20210622011354 63 0 1.0 3.0 0.00 0.00 0.00 43 1014.6
20210622011249 63 0 1.0 3.0 0.00 0.00 0.00 43 1014.6
20210622011145 63 0 1.0 3.0 0.00 0.00 0.00 43 1014.6
20210622011041 63 0 0.0 3.0 0.00 0.00 0.00 43 1014.6
20210622010935 63 0 0.0 3.0 0.00 0.00 0.00 43 1014.6
20210622010828 63 0 0.0 3.0 0.00 0.00 0.00 42 1014.6
20210622010724 63 0 0.0 3.0 0.00 0.00 0.00 42 1014.6
20210622010622 63 0 0.0 3.0 0.00 0.00 0.00 41 1014.6
20210622010517 63 0 0.0 3.0 0.00 0.00 0.00 42 1014.6
20210622010414 63 0 0.0 3.0 0.00 0.00 0.00 41 1014.6
20210622010307 63 0 0.0 3.0 0.00 0.00 0.00 41 1014.6
20210622010200 63 0 0.0 3.0 0.00 0.00 0.00 41 1014.5
20210622010057 63 0 0.0 4.0 0.00 0.00 0.00 41 1014.5
20210622005953 64 0 1.0 4.0 0.00 0.00 0.00 42 1014.5
20210622005849 64 0 1.0 4.0 0.00 0.00 0.00 42 1014.5
20210622005745 64 0 1.0 4.0 0.00 0.00 0.00 41 1014.5
20210622005640 64 0 1.0 4.0 0.00 0.00 0.00 41 1014.5
20210622005533 64 0 1.0 4.0 0.00 0.00 0.00 41 1014.5
20210622005429 64 0 1.0 4.0 0.00 0.00 0.00 41 1014.5
20210622005326 64 0 1.0 4.0 0.00 0.00 0.00 41 1014.6
20210622005224 64 0 1.0 4.0 0.00 0.00 0.00 41 1014.5
20210622005120 64 0 1.0 5.0 0.00 0.00 0.00 40 1014.5
20210622005016 64 0 1.0 5.0 0.00 0.00 0.00 40 1014.5
20210622004914 64 0 1.0 5.0 0.00 0.00 0.00 40 1014.5
20210622004812 64 0 1.0 5.0 0.00 0.00 0.00 39 1014.5
20210622004705 65 0 1.0 5.0 0.00 0.00 0.00 39 1014.5
20210622004602 65 0 1.0 5.0 0.00 0.00 0.00 39 1014.5
20210622004500 65 0 1.0 5.0 0.00 0.00 0.00 39 1014.5
20210622004354 65 0 1.0 5.0 0.00 0.00 0.00 39 1014.6
20210622004248 65 0 1.0 5.0 0.00 0.00 0.00 39 1014.6
20210622004143 65 0 1.0 5.0 0.00 0.00 0.00 38 1014.6
20210622004039 65 0 1.0 5.0 0.00 0.00 0.00 38 1014.6
20210622003934 65 0 1.0 5.0 0.00 0.00 0.00 38 1014.6
20210622003832 65 0 1.0 5.0 0.00 0.00 0.00 38 1014.6
20210622003727 65 0 1.0 5.0 0.00 0.00 0.00 38 1014.6
20210622003620 66 0 1.0 5.0 0.00 0.00 0.00 38 1014.6
20210622003514 66 0 1.0 5.0 0.00 0.00 0.00 38 1014.6
20210622003406 66 0 1.0 5.0 0.00 0.00 0.00 38 1014.6
20210622003258 66 0 1.0 5.0 0.00 0.00 0.00 38 1014.6
20210622003155 66 0 1.0 5.0 0.00 0.00 0.00 39 1014.6
20210622003049 66 0 1.0 4.0 0.00 0.00 0.00 39 1014.7
20210622002944 66 0 1.0 4.0 0.00 0.00 0.00 39 1014.7
20210622002837 66 0 1.0 4.0 0.00 0.00 0.00 39 1014.6
20210622002732 66 0 1.0 4.0 0.00 0.00 0.00 38 1014.6
20210622002625 66 0 1.0 5.0 0.00 0.00 0.00 39 1014.6
20210622002522 66 0 1.0 5.0 0.00 0.00 0.00 39 1014.6
20210622002420 66 0 1.0 5.0 0.00 0.00 0.00 40 1014.6
20210622002318 66 0 2.0 5.0 0.00 0.00 0.00 40 1014.6
20210622002211 66 0 2.0 5.0 0.00 0.00 0.00 39 1014.6
20210622002104 66 0 2.0 5.0 0.00 0.00 0.00 38 1014.6
20210622001958 66 0 2.0 5.0 0.00 0.00 0.00 39 1014.6
20210622001854 66 0 1.0 5.0 0.00 0.00 0.00 39 1014.6
20210622001749 66 0 1.0 5.0 0.00 0.00 0.00 39 1014.6
20210622001642 66 0 2.0 8.0 0.00 0.00 0.00 40 1014.6
20210622001539 66 0 2.0 8.0 0.00 0.00 0.00 39 1014.6
20210622001433 66 0 2.0 8.0 0.00 0.00 0.00 39 1014.6
20210622001328 66 0 2.0 8.0 0.00 0.00 0.00 39 1014.6
20210622001222 66 0 2.0 8.0 0.00 0.00 0.00 38 1014.6
20210622001120 66 0 2.0 8.0 0.00 0.00 0.00 38 1014.6
20210622001013 66 0 2.0 8.0 0.00 0.00 0.00 37 1014.6
20210622000910 66 0 2.0 8.0 0.00 0.00 0.00 37 1014.6
20210622000808 66 0 2.0 8.0 0.00 0.00 0.00 38 1014.6
20210622000703 66 0 2.0 8.0 0.00 0.00 0.00 38 1014.6
20210622000558 66 0 2.0 8.0 0.00 0.00 0.00 38 1014.6
20210622000456 66 0 2.0 8.0 0.00 0.00 0.00 38 1014.6
20210622000353 66 0 2.0 8.0 0.00 0.00 0.00 38 1014.6
20210622000250 66 0 2.0 8.0 0.00 0.00 0.00 38 1014.6
20210622000148 66 0 2.0 8.0 0.00 0.00 0.00 39 1014.5
20210622000041 66 0 2.0 8.0 0.00 0.00 0.00 39 1014.5
20210621235935 66 0 2.0 8.0 0.00 0.00 0.00 38 1014.5
20210621235833 66 0 2.0 8.0 0.00 0.00 0.00 38 1014.5
20210621235727 66 0 2.0 8.0 0.00 0.00 0.00 38 1014.6
20210621235620 66 0 2.0 7.0 0.00 0.00 0.00 38 1014.6
20210621235515 66 0 2.0 8.0 0.00 0.00 0.00 39 1014.6
20210621235412 66 0 2.0 8.0 0.00 0.00 0.00 39 1014.6
20210621235306 66 0 2.0 8.0 0.00 0.00 0.00 38 1014.6
20210621235203 66 0 2.0 8.0 0.00 0.00 0.00 38 1014.5
20210621235101 66 0 2.0 8.0 0.00 0.00 0.00 39 1014.6
20210621234957 66 0 2.0 8.0 0.00 0.00 0.00 39 1014.6
20210621234851 66 0 2.0 8.0 0.00 0.00 0.00 39 1014.6
20210621234749 66 0 2.0 8.0 0.00 0.00 0.00 39 1014.6
20210621234646 66 0 2.0 8.0 0.00 0.00 0.00 38 1014.6
20210621234539 66 0 2.0 8.0 0.00 0.00 0.00 37 1014.6
20210621234434 66 0 2.0 8.0 0.00 0.00 0.00 37 1014.6
20210621234332 66 0 2.0 8.0 0.00 0.00 0.00 37 1014.7
20210621234225 67 0 2.0 8.0 0.00 0.00 0.00 36 1014.6
20210621234120 67 0 2.0 8.0 0.00 0.00 0.00 37 1014.6
20210621234016 67 0 2.0 8.0 0.00 0.00 0.00 37 1014.6
20210621233914 67 0 2.0 8.0 0.00 0.00 0.00 37 1014.6
20210621233807 67 0 2.0 8.0 0.00 0.00 0.00 37 1014.6
20210621233705 67 0 2.0 8.0 0.00 0.00 0.00 37 1014.6
20210621233558 67 0 2.0 8.0 0.00 0.00 0.00 37 1014.6
20210621233451 67 0 3.0 8.0 0.00 0.00 0.00 37 1014.6
20210621233344 67 0 3.0 8.0 0.00 0.00 0.00 37 1014.6
20210621233240 67 0 3.0 8.0 0.00 0.00 0.00 36 1014.5
20210621233139 67 0 3.0 8.0 0.00 0.00 0.00 36 1014.5
20210621233035 67 0 3.0 8.0 0.00 0.00 0.00 37 1014.5
20210621232932 67 0 3.0 8.0 0.00 0.00 0.00 37 1014.6
20210621232826 67 0 3.0 8.0 0.00 0.00 0.00 38 1014.5
20210621232720 67 0 3.0 8.0 0.00 0.00 0.00 38 1014.5
20210621232614 67 0 3.0 8.0 0.00 0.00 0.00 38 1014.5
20210621232510 67 0 3.0 8.0 0.00 0.00 0.00 38 1014.5
20210621232406 67 0 3.0 8.0 0.00 0.00 0.00 38 1014.5
20210621232305 67 0 2.0 8.0 0.00 0.00 0.00 38 1014.5
20210621232158 67 0 2.0 8.0 0.00 0.00 0.00 37 1014.5
20210621232052 67 0 2.0 8.0 0.00 0.00 0.00 37 1014.5
20210621231946 67 0 2.0 8.0 0.00 0.00 0.00 36 1014.5
20210621231841 67 0 2.0 8.0 0.00 0.00 0.00 37 1014.5
20210621231734 67 0 2.0 8.0 0.00 0.00 0.00 39 1014.5
20210621231630 67 0 2.0 8.0 0.00 0.00 0.00 38 1014.5
20210621231524 67 0 2.0 8.0 0.00 0.00 0.00 37 1014.6
20210621231418 67 0 2.0 8.0 0.00 0.00 0.00 38 1014.5
20210621231314 67 0 2.0 8.0 0.00 0.00 0.00 38 1014.5
20210621231207 67 0 2.0 10.0 0.00 0.00 0.00 38 1014.5
20210621231101 67 0 2.0 10.0 0.00 0.00 0.00 38 1014.6
20210621230953 66 0 2.0 10.0 0.00 0.00 0.00 38 1014.5
20210621230850 66 0 2.0 10.0 0.00 0.00 0.00 38 1014.6
20210621230744 66 0 2.0 10.0 0.00 0.00 0.00 38 1014.6
20210621230641 66 0 2.0 10.0 0.00 0.00 0.00 38 1014.6
20210621230536 66 0 2.0 10.0 0.00 0.00 0.00 38 1014.7
20210621230431 67 0 2.0 10.0 0.00 0.00 0.00 39 1014.7
20210621230324 67 0 2.0 10.0 0.00 0.00 0.00 39 1014.6
20210621230220 67 0 2.0 10.0 0.00 0.00 0.00 38 1014.7
20210621230114 67 0 2.0 10.0 0.00 0.00 0.00 37 1014.6
20210621230009 67 0 2.0 10.0 0.00 0.00 0.00 39 1014.7
20210621225905 67 0 2.0 10.0 0.00 0.00 0.00 38 1014.7
20210621225759 67 0 2.0 10.0 0.00 0.00 0.00 39 1014.7
20210621225657 67 0 2.0 10.0 0.00 0.00 0.00 39 1014.6
20210621225553 66 0 2.0 10.0 0.00 0.00 0.00 39 1014.7
20210621225449 66 0 2.0 10.0 0.00 0.00 0.00 39 1014.7
20210621225345 66 0 2.0 10.0 0.00 0.00 0.00 39 1014.8
20210621225240 66 0 2.0 10.0 0.00 0.00 0.00 39 1014.7
20210621225137 66 0 2.0 10.0 0.00 0.00 0.00 39 1014.7
20210621225031 66 0 2.0 10.0 0.00 0.00 0.00 39 1014.7
20210621224927 66 0 2.0 17.0 0.00 0.00 0.00 38 1014.8
20210621224821 66 0 2.0 17.0 0.00 0.00 0.00 38 1014.7
20210621224717 66 0 2.0 17.0 0.00 0.00 0.00 38 1014.7
20210621224614 66 0 2.0 17.0 0.00 0.00 0.00 38 1014.8
20210621224512 66 0 2.0 17.0 0.00 0.00 0.00 38 1014.8
20210621224405 66 0 2.0 17.0 0.00 0.00 0.00 38 1014.8
20210621224258 66 0 2.0 17.0 0.00 0.00 0.00 38 1014.7
20210621224151 66 0 2.0 17.0 0.00 0.00 0.00 37 1014.8
20210621224049 66 0 2.0 17.0 0.00 0.00 0.00 38 1015.0
20210621223945 66 0 2.0 17.0 0.00 0.00 0.00 37 1014.8
20210621223841 66 0 2.0 17.0 0.00 0.00 0.00 36 1014.9
20210621223738 66 0 3.0 17.0 0.00 0.00 0.00 36 1014.9
20210621223635 66 0 3.0 17.0 0.00 0.00 0.00 36 1014.9
20210621223532 66 0 3.0 17.0 0.00 0.00 0.00 37 1014.8
20210621223425 66 0 3.0 17.0 0.00 0.00 0.00 37 1014.9
20210621223323 67 0 3.0 17.0 0.00 0.00 0.00 36 1014.9
20210621223217 67 0 4.0 17.0 0.00 0.00 0.00 38 1014.8
20210621223114 67 0 4.0 17.0 0.00 0.00 0.00 36 1014.8
20210621223010 67 0 4.0 17.0 0.00 0.00 0.00 37 1014.8
20210621222905 67 0 3.0 10.0 0.00 0.00 0.00 36 1014.8
20210621222759 67 0 3.0 10.0 0.00 0.00 0.00 37 1014.9
20210621222656 67 0 3.0 9.0 0.00 0.00 0.00 38 1014.9
20210621222550 67 0 3.0 9.0 0.00 0.00 0.00 37 1014.9
20210621222445 68 0 3.0 9.0 0.00 0.00 0.00 36 1014.9
20210621222340 68 0 3.0 9.0 0.00 0.00 0.00 36 1015.0
20210621222233 68 0 2.0 9.0 0.00 0.00 0.00 37 1014.9
20210621222128 68 0 2.0 8.0 0.00 0.00 0.00 37 1014.9
20210621222024 68 0 2.0 8.0 0.00 0.00 0.00 36 1015.0
20210621221921 68 0 2.0 8.0 0.00 0.00 0.00 36 1014.9
20210621221813 67 0 2.0 8.0 0.00 0.00 0.00 37 1015.0
20210621221707 67 0 2.0 8.0 0.00 0.00 0.00 37 1015.1
20210621221600 67 0 2.0 10.0 0.00 0.00 0.00 36 1015.0
20210621221452 67 0 2.0 10.0 0.00 0.00 0.00 37 1015.1
20210621221345 67 0 2.0 10.0 0.00 0.00 0.00 37 1015.0
20210621221243 67 0 2.0 10.0 0.00 0.00 0.00 36 1015.0
20210621221139 67 0 3.0 10.0 0.00 0.00 0.00 37 1015.1
20210621221036 67 0 2.0 10.0 0.00 0.00 0.00 37 1015.1
20210621220934 67 0 2.0 10.0 0.00 0.00 0.00 37 1014.9
20210621220832 67 0 2.0 10.0 0.00 0.00 0.00 36 1015.0
20210621220726 67 0 2.0 10.0 0.00 0.00 0.00 37 1015.0
20210621220622 66 0 3.0 10.0 0.00 0.00 0.00 37 1015.0
20210621220519 66 0 3.0 10.0 0.00 0.00 0.00 39 1015.0
20210621220416 66 0 3.0 10.0 0.00 0.00 0.00 38 1015.0
20210621220309 66 0 3.0 10.0 0.00 0.00 0.00 37 1015.0
20210621220206 66 0 3.0 10.0 0.00 0.00 0.00 37 1015.0
20210621220103 66 0 3.0 10.0 0.00 0.00 0.00 36 1015.0
20210621220001 66 0 3.0 10.0 0.00 0.00 0.00 36 1014.9
20210621215857 66 0 3.0 10.0 0.00 0.00 0.00 37 1015.0
20210621215750 66 0 3.0 10.0 0.00 0.00 0.00 36 1015.0
20210621215644 67 0 3.0 10.0 0.00 0.00 0.00 35 1015.0
20210621215539 67 0 3.0 9.0 0.00 0.00 0.00 35 1015.0
20210621215437 67 0 2.0 9.0 0.00 0.00 0.00 36 1015.0
20210621215330 68 0 3.0 9.0 0.00 0.00 0.00 35 1015.1
20210621215225 68 0 3.0 9.0 0.00 0.00 0.00 34 1015.1
20210621215119 68 0 3.0 9.0 0.00 0.00 0.00 36 1015.0
20210621215016 68 0 3.0 9.0 0.00 0.00 0.00 36 1015.0
20210621214912 68 0 2.0 8.0 0.00 0.00 0.00 36 1015.0
20210621214810 68 0 2.0 8.0 0.00 0.00 0.00 37 1015.1
20210621214702 68 0 2.0 8.0 0.00 0.00 0.00 34 1014.9
20210621214555 68 0 2.0 8.0 0.00 0.00 0.00 34 1015.0
20210621214452 68 0 2.0 8.0 0.00 0.00 0.00 34 1015.0
20210621214348 68 0 2.0 8.0 0.00 0.00 0.00 36 1015.0
20210621214242 68 0 2.0 7.0 0.00 0.00 0.00 35 1015.0
20210621214135 68 0 2.0 7.0 0.00 0.00 0.00 36 1015.0
20210621214027 68 0 2.0 7.0 0.00 0.00 0.00 37 1015.0
20210621213921 68 0 2.0 7.0 0.00 0.00 0.00 37 1015.0
20210621213819 67 0 2.0 7.0 0.00 0.00 0.00 37 1015.0
20210621213712 67 0 2.0 7.0 0.00 0.00 0.00 37 1014.9
20210621213606 67 0 2.0 7.0 0.00 0.00 0.00 36 1015.0
20210621213504 67 0 2.0 10.0 0.00 0.00 0.00 36 1015.1
20210621213402 66 0 2.0 10.0 0.00 0.00 0.00 36 1015.2
20210621213258 66 0 2.0 10.0 0.00 0.00 0.00 37 1015.2
20210621213153 66 0 2.0 10.0 0.00 0.00 0.00 38 1015.1
20210621213049 66 0 2.0 10.0 0.00 0.00 0.00 36 1015.1
20210621212941 66 0 2.0 10.0 0.00 0.00 0.00 38 1015.1
20210621212835 66 0 2.0 10.0 0.00 0.00 0.00 37 1015.2
20210621212730 66 0 2.0 10.0 0.00 0.00 0.00 37 1015.1
20210621212623 66 0 2.0 10.0 0.00 0.00 0.00 37 1015.0
20210621212518 66 0 3.0 10.0 0.00 0.00 0.00 37 1015.1
20210621212411 66 0 3.0 10.0 0.00 0.00 0.00 36 1015.1
20210621212309 66 0 3.0 10.0 0.00 0.00 0.00 36 1015.2
20210621212204 66 0 3.0 10.0 0.00 0.00 0.00 36 1015.2
20210621212058 66 0 3.0 10.0 0.00 0.00 0.00 37 1015.2
20210621211952 66 0 3.0 10.0 0.00 0.00 0.00 36 1015.2
20210621211845 67 0 3.0 10.0 0.00 0.00 0.00 35 1015.0
20210621211741 67 0 3.0 10.0 0.00 0.00 0.00 35 1015.0
20210621211637 67 0 3.0 10.0 0.00 0.00 0.00 35 1015.2
20210621211533 67 0 3.0 10.0 0.00 0.00 0.00 34 1015.2
20210621211429 68 0 3.0 9.0 0.00 0.00 0.00 34 1015.1
20210621211322 68 0 3.0 9.0 0.00 0.00 0.00 34 1015.2
20210621211217 68 0 3.0 8.0 0.00 0.00 0.00 35 1015.0
20210621211114 68 0 3.0 13.0 0.00 0.00 0.00 35 1015.1
20210621211009 68 0 3.0 13.0 0.00 0.00 0.00 34 1015.2
20210621210907 68 0 3.0 13.0 0.00 0.00 0.00 35 1015.2
20210621210800 68 0 3.0 13.0 0.00 0.00 0.00 36 1015.2
20210621210657 68 0 3.0 13.0 0.00 0.00 0.00 36 1015.2
20210621210552 68 0 2.0 13.0 0.00 0.00 0.00 35 1015.1
20210621210448 68 0 2.0 13.0 0.00 0.00 0.00 36 1015.2
20210621210341 68 0 2.0 13.0 0.00 0.00 0.00 35 1015.1
20210621210238 68 0 2.0 13.0 0.00 0.00 0.00 34 1015.1
20210621210131 68 0 3.0 13.0 0.00 0.00 0.00 37 1015.1
20210621210026 68 0 3.0 13.0 0.00 0.00 0.00 37 1015.1
20210621205923 68 0 3.0 13.0 0.00 0.00 0.00 37 1015.1
20210621205818 68 0 3.0 13.0 0.00 0.00 0.00 36 1015.1
20210621205716 68 0 3.0 13.0 0.00 0.00 0.00 36 1015.1
20210621205614 68 0 3.0 13.0 0.00 0.00 0.00 36 1015.2
20210621205507 68 0 3.0 13.0 0.00 0.00 0.00 36 1015.2
20210621205406 68 0 4.0 13.0 0.00 0.00 0.00 36 1015.2
20210621205304 68 0 3.0 13.0 0.00 0.00 0.00 36 1015.2
20210621205158 68 0 3.0 13.0 0.00 0.00 0.00 35 1015.1
20210621205055 68 0 3.0 10.0 0.00 0.00 0.00 35 1015.2
20210621204948 68 0 3.0 10.0 0.00 0.00 0.00 35 1015.2
20210621204842 68 0 3.0 10.0 0.00 0.00 0.00 35 1015.3
20210621204739 68 0 3.0 10.0 0.00 0.00 0.00 35 1015.3
20210621204634 68 0 3.0 10.0 0.00 0.00 0.00 35 1015.2
20210621204531 68 0 3.0 10.0 0.00 0.00 0.00 34 1015.3
20210621204424 69 0 3.0 10.0 0.00 0.00 0.00 35 1015.2
20210621204321 69 0 3.0 10.0 0.00 0.00 0.00 34 1015.2
20210621204218 69 0 3.0 10.0 0.00 0.00 0.00 35 1015.2
20210621204115 69 0 3.0 10.0 0.00 0.00 0.00 35 1015.2
20210621204008 69 0 3.0 10.0 0.00 0.00 0.00 35 1015.2
20210621203905 69 0 3.0 10.0 0.00 0.00 0.00 38 1015.2
20210621203800 69 0 3.0 10.0 0.00 0.00 0.00 39 1015.2
20210621203654 68 0 3.0 10.0 0.00 0.00 0.00 37 1015.1
20210621203550 68 0 3.0 10.0 0.00 0.00 0.00 34 1015.2
20210621203446 68 0 3.0 10.0 0.00 0.00 0.00 35 1015.2
20210621203341 68 0 3.0 10.0 0.00 0.00 0.00 35 1015.1
20210621203237 68 0 3.0 10.0 0.00 0.00 0.00 36 1015.1
20210621203135 68 0 3.0 10.0 0.00 0.00 0.00 36 1015.1
20210621203028 68 0 4.0 10.0 0.00 0.00 0.00 35 1015.0
20210621202923 67 0 3.0 10.0 0.00 0.00 0.00 37 1015.0
20210621202819 67 0 3.0 10.0 0.00 0.00 0.00 37 1015.1
20210621202716 67 0 3.0 15.0 0.00 0.00 0.00 35 1015.2
20210621202613 67 0 3.0 15.0 0.00 0.00 0.00 35 1015.2
20210621202510 68 0 3.0 15.0 0.00 0.00 0.00 35 1015.1
20210621202407 68 0 3.0 15.0 0.00 0.00 0.00 35 1015.1
20210621202305 68 0 4.0 15.0 0.00 0.00 0.00 36 1015.0
20210621202159 68 0 4.0 15.0 0.00 0.00 0.00 37 1015.0
20210621202055 68 0 4.0 15.0 0.00 0.00 0.00 38 1015.0
20210621201950 67 0 4.0 15.0 0.00 0.00 0.00 36 1015.0
20210621201845 67 0 4.0 15.0 0.00 0.00 0.00 38 1015.1
20210621201737 67 0 4.0 15.0 0.00 0.00 0.00 36 1015.0
20210621201634 67 0 4.0 15.0 0.00 0.00 0.00 36 1015.1
20210621201531 67 0 4.0 15.0 0.00 0.00 0.00 36 1015.1
20210621201426 67 0 3.0 15.0 0.00 0.00 0.00 36 1015.1
20210621201321 67 0 3.0 15.0 0.00 0.00 0.00 35 1015.0
20210621201217 68 0 3.0 15.0 0.00 0.00 0.00 34 1015.0
20210621201115 68 0 3.0 15.0 0.00 0.00 0.00 37 1015.0
20210621201009 68 0 2.0 15.0 0.00 0.00 0.00 36 1014.9
20210621200905 68 0 2.0 15.0 0.00 0.00 0.00 36 1014.9
20210621200803 68 0 2.0 15.0 0.00 0.00 0.00 37 1014.8
20210621200701 68 0 2.0 14.0 0.00 0.00 0.00 36 1014.9
20210621200554 68 0 2.0 14.0 0.00 0.00 0.00 35 1014.9
20210621200452 68 0 2.0 14.0 0.00 0.00 0.00 35 1014.9
20210621200344 68 0 2.0 14.0 0.00 0.00 0.00 36 1015.0
20210621200240 68 0 2.0 14.0 0.00 0.00 0.00 38 1014.9
20210621200137 68 0 2.0 14.0 0.00 0.00 0.00 38 1014.9
20210621200034 68 0 2.0 14.0 0.00 0.00 0.00 38 1014.9
20210621195930 67 0 2.0 14.0 0.00 0.00 0.00 37 1014.9
20210621195824 67 0 3.0 14.0 0.00 0.00 0.00 38 1014.9
20210621195717 67 0 3.0 14.0 0.00 0.00 0.00 38 1014.8
20210621195614 67 0 3.0 14.0 0.00 0.00 0.00 36 1014.7
20210621195510 67 0 2.0 14.0 0.00 0.00 0.00 38 1014.9
20210621195403 67 0 3.0 14.0 0.00 0.00 0.00 37 1014.8
20210621195300 67 0 2.0 14.0 0.00 0.00 0.00 37 1014.8
20210621195156 67 0 3.0 14.0 0.00 0.00 0.00 36 1014.8
20210621195050 67 0 3.0 14.0 0.00 0.00 0.00 37 1014.9
20210621194948 66 0 3.0 14.0 0.00 0.00 0.00 39 1014.8
20210621194845 66 0 3.0 14.0 0.00 0.00 0.00 39 1014.8
20210621194743 66 0 3.0 9.0 0.00 0.00 0.00 37 1014.9
20210621194639 66 0 3.0 9.0 0.00 0.00 0.00 37 1014.9
20210621194537 66 0 3.0 9.0 0.00 0.00 0.00 38 1014.9
20210621194434 66 0 3.0 9.0 0.00 0.00 0.00 36 1014.9
20210621194329 67 0 3.0 9.0 0.00 0.00 0.00 38 1014.9
20210621194224 67 0 3.0 9.0 0.00 0.00 0.00 37 1014.9
20210621194119 67 0 3.0 9.0 0.00 0.00 0.00 38 1014.8
20210621194011 67 0 3.0 9.0 0.00 0.00 0.00 38 1014.9
20210621193904 67 0 3.0 9.0 0.00 0.00 0.00 39 1014.8
20210621193758 66 0 3.0 7.0 0.00 0.00 0.00 40 1014.8
20210621193554 66 0 3.0 12.0 0.00 0.00 0.00 39 1014.8
20210621193450 66 0 3.0 12.0 0.00 0.00 0.00 38 1014.8
20210621193344 66 0 3.0 12.0 0.00 0.00 0.00 37 1014.9
20210621193238 66 0 3.0 12.0 0.00 0.02 0.00 37 1014.9
20210621193137 67 0 3.0 12.0 0.00 0.02 0.00 35 1014.8
20210621193034 67 0 3.0 12.0 0.00 0.02 0.00 36 1014.9
20210621192930 67 0 3.0 12.0 0.00 0.02 0.00 36 1014.8
20210621192824 67 0 3.0 12.0 0.00 0.02 0.00 37 1014.9
20210621192722 67 0 3.0 12.0 0.00 0.02 0.00 38 1014.8
20210621192616 67 0 3.0 12.0 0.00 0.02 0.00 39 1014.9
20210621192510 67 0 3.0 12.0 0.00 0.02 0.00 40 1014.8
20210621192405 66 0 3.0 12.0 0.00 0.02 0.00 38 1014.8
20210621192259 66 0 3.0 12.0 0.00 0.02 0.00 38 1014.8
20210621192154 66 0 3.0 12.0 0.00 0.02 0.00 37 1014.8
20210621192051 66 0 3.0 12.0 0.00 0.02 0.00 37 1014.9
20210621191948 66 0 3.0 12.0 0.00 0.02 0.00 38 1014.9
20210621191846 66 0 3.0 12.0 0.00 0.02 0.00 37 1014.9
20210621191739 66 0 4.0 12.0 0.00 0.02 0.00 37 1014.9
20210621191632 67 0 3.0 12.0 0.00 0.02 0.00 36 1014.9
20210621191525 67 0 3.0 12.0 0.00 0.02 0.00 37 1014.8
20210621191420 67 0 3.0 12.0 0.00 0.02 0.00 37 1014.9
20210621191314 67 0 3.0 12.0 0.00 0.02 0.00 36 1014.9
20210621191208 67 0 3.0 12.0 0.00 0.02 0.00 38 1015.0
20210621191106 67 0 4.0 12.0 0.00 0.02 0.00 37 1015.0
20210621191001 67 0 4.0 12.0 0.00 0.02 0.00 36 1015.0
20210621190857 67 0 4.0 12.0 0.00 0.02 0.00 38 1014.9
20210621190754 67 0 4.0 12.0 0.00 0.02 0.00 38 1014.9
20210621190650 67 0 4.0 12.0 0.00 0.02 0.00 38 1015.0
20210621190543 67 0 4.0 12.0 0.00 0.02 0.00 38 1015.0
20210621190436 67 0 4.0 12.0 0.00 0.02 0.00 37 1015.0
20210621190328 67 0 4.0 12.0 0.00 0.02 0.00 39 1015.1
20210621190225 67 0 4.0 12.0 0.00 0.02 0.00 38 1015.0
20210621190118 67 0 3.0 11.0 0.00 0.02 0.00 38 1015.0
20210621190014 67 0 3.0 9.0 0.00 0.02 0.00 37 1015.0
20210621185910 67 0 3.0 9.0 0.00 0.02 0.00 35 1015.0
20210621185808 68 0 2.0 9.0 0.00 0.02 0.00 35 1015.0
20210621185702 68 0 2.0 7.0 0.00 0.02 0.00 37 1015.0
20210621185557 68 0 2.0 7.0 0.00 0.02 0.00 39 1014.9
20210621185455 68 0 2.0 12.0 0.00 0.02 0.00 39 1015.0
20210621185349 68 0 2.0 12.0 0.00 0.02 0.00 40 1015.0
20210621185246 67 0 2.0 12.0 0.00 0.02 0.00 39 1014.9
20210621185141 67 0 3.0 12.0 0.00 0.02 0.00 40 1014.9
20210621185037 67 0 3.0 12.0 0.00 0.02 0.00 41 1015.0
20210621184930 67 0 3.0 12.0 0.00 0.02 0.00 40 1015.0
20210621184825 66 0 3.0 12.0 0.00 0.02 0.00 38 1015.0
20210621184721 66 0 3.0 12.0 0.00 0.02 0.00 39 1014.9
20210621184617 66 0 4.0 12.0 0.00 0.02 0.00 37 1015.0
20210621184512 66 0 4.0 12.0 0.00 0.02 0.00 37 1015.0
20210621184408 66 0 4.0 12.0 0.00 0.02 0.00 38 1015.0
20210621184304 66 0 4.0 12.0 0.00 0.02 0.00 38 1015.0
20210621184158 66 0 5.0 12.0 0.00 0.02 0.00 38 1015.1
20210621184054 66 0 5.0 12.0 0.00 0.02 0.00 38 1014.9
20210621183948 66 0 5.0 12.0 0.00 0.02 0.00 38 1014.9
20210621183842 66 0 5.0 12.0 0.00 0.02 0.00 38 1015.0
20210621183736 65 0 5.0 12.0 0.00 0.02 0.00 38 1015.0
20210621183630 65 0 5.0 12.0 0.00 0.02 0.00 38 1014.9
20210621183524 65 0 5.0 12.0 0.00 0.02 0.00 38 1014.9
20210621182625 66 0 3.0 9.0 0.00 0.02 0.00 38 1015.1
20210621182521 66 0 4.0 9.0 0.00 0.02 0.00 37 1015.1
20210621182417 66 0 4.0 9.0 0.00 0.02 0.00 38 1015.1
20210621182312 66 0 3.0 9.0 0.00 0.02 0.00 39 1015.1
20210621182209 66 0 3.0 7.0 0.00 0.02 0.00 41 1015.2
20210621182019 66 0 3.0 10.0 0.00 0.03 0.00 40 1015.2
20210621181913 65 0 3.0 10.0 0.00 0.03 0.00 38 1015.1
20210621181809 65 0 3.0 10.0 0.00 0.03 0.00 37 1015.2
20210621181704 65 0 3.0 10.0 0.00 0.03 0.00 38 1015.2
20210621181559 65 0 3.0 10.0 0.00 0.03 0.00 38 1015.2
20210621181452 65 0 3.0 10.0 0.00 0.03 0.00 39 1015.2
20210621181350 65 0 3.0 10.0 0.00 0.03 0.00 39 1015.1
20210621181243 65 0 3.0 10.0 0.00 0.03 0.00 39 1015.2
20210621181141 65 0 3.0 10.0 0.00 0.03 0.00 39 1015.1
20210621181039 65 0 3.0 10.0 0.00 0.03 0.00 38 1015.1
20210621180935 65 0 3.0 10.0 0.00 0.03 0.00 38 1015.1
20210621180828 65 0 3.0 10.0 0.00 0.03 0.00 38 1015.3
20210621180722 65 0 4.0 10.0 0.00 0.03 0.00 37 1015.1
20210621180619 65 0 3.0 10.0 0.00 0.03 0.00 37 1015.3
20210621180514 66 0 3.0 10.0 0.00 0.03 0.00 36 1015.2
20210621180408 66 0 3.0 10.0 0.00 0.03 0.00 37 1015.2
20210621180305 66 0 3.0 10.0 0.00 0.03 0.00 36 1015.1
20210621180201 66 0 3.0 10.0 0.00 0.03 0.00 37 1015.1
20210621180059 66 0 3.0 10.0 0.00 0.03 0.00 36 1015.0
20210621175951 66 0 3.0 8.0 0.00 0.03 0.00 36 1015.2
20210621175846 66 0 3.0 12.0 0.00 0.03 0.00 36 1015.2
20210621175743 66 0 3.0 12.0 0.00 0.03 0.00 36 1015.1
20210621175638 66 0 3.0 12.0 0.00 0.03 0.00 37 1015.1
20210621175532 66 0 3.0 12.0 0.00 0.03 0.00 37 1015.2
20210621175430 66 0 3.0 12.0 0.00 0.03 0.00 40 1015.0
20210621175326 66 0 3.0 12.0 0.00 0.03 0.00 37 1015.1
20210621175223 66 0 4.0 12.0 0.00 0.03 0.00 39 1015.2
20210621175116 65 0 4.0 12.0 0.00 0.03 0.00 38 1015.2
20210621175009 65 0 4.0 12.0 0.00 0.03 0.00 37 1015.3
20210621174902 65 0 4.0 12.0 0.00 0.03 0.00 38 1015.2
20210621174755 65 0 4.0 12.0 0.00 0.03 0.00 40 1015.3
20210621174648 65 0 4.0 12.0 0.00 0.03 0.00 37 1015.2
20210621174546 65 0 4.0 12.0 0.00 0.03 0.00 37 1015.4
20210621174441 65 0 3.0 12.0 0.00 0.03 0.00 38 1015.3
20210621174339 66 0 3.0 12.0 0.00 0.03 0.00 38 1015.2
20210621174236 66 0 3.0 12.0 0.00 0.03 0.00 36 1015.3
20210621174133 66 0 3.0 12.0 0.00 0.03 0.00 37 1015.3
20210621174029 66 0 3.0 12.0 0.00 0.03 0.00 39 1015.4
20210621173921 66 0 3.0 8.0 0.00 0.03 0.00 40 1015.4
20210621173815 66 0 3.0 8.0 0.00 0.03 0.00 39 1015.4
20210621173709 65 0 3.0 7.0 0.00 0.03 0.00 36 1015.4
20210621173605 66 0 3.0 7.0 0.00 0.03 0.00 37 1015.4
20210621173500 65 0 3.0 5.0 0.00 0.03 0.00 38 1015.3
20210621173356 65 0 3.0 8.0 0.00 0.03 0.00 36 1015.3
20210621173249 65 0 2.0 8.0 0.00 0.03 0.00 37 1015.2
20210621173145 66 0 2.0 8.0 0.00 0.03 0.00 37 1015.3
20210621173041 66 0 2.0 8.0 0.00 0.03 0.00 37 1015.4
20210621172938 66 0 2.0 8.0 0.00 0.03 0.00 38 1015.3
20210621172836 66 0 2.0 8.0 0.00 0.03 0.00 39 1015.3
20210621172732 66 0 2.0 8.0 0.00 0.03 0.00 40 1015.3
20210621172625 65 0 2.0 8.0 0.00 0.03 0.00 39 1015.3
20210621172522 65 0 2.0 8.0 0.00 0.03 0.00 36 1015.3
20210621172417 65 0 2.0 13.0 0.00 0.03 0.00 37 1015.2
20210621172309 65 0 2.0 13.0 0.00 0.03 0.00 39 1015.3
20210621172202 65 0 2.0 13.0 0.00 0.03 0.00 38 1015.4
20210621172058 65 0 2.0 13.0 0.00 0.03 0.00 39 1015.4
20210621171954 65 0 2.0 13.0 0.00 0.03 0.00 39 1015.3
20210621171849 65 0 2.0 13.0 0.00 0.03 0.00 40 1015.3
20210621171746 65 0 2.0 13.0 0.00 0.03 0.00 40 1015.3
20210621171643 65 0 3.0 13.0 0.00 0.03 0.00 38 1015.3
20210621171539 65 0 3.0 13.0 0.00 0.03 0.00 38 1015.3
20210621171435 65 0 3.0 13.0 0.00 0.03 0.00 37 1015.3
20210621171331 65 0 3.0 13.0 0.00 0.03 0.00 37 1015.3
20210621171224 65 0 3.0 13.0 0.00 0.03 0.00 38 1015.3
20210621171117 65 0 3.0 13.0 0.00 0.03 0.00 38 1015.2
20210621171014 65 0 4.0 13.0 0.00 0.03 0.00 42 1015.1
20210621170912 64 0 4.0 13.0 0.00 0.03 0.00 39 1015.1
20210621170807 64 0 4.0 13.0 0.00 0.03 0.00 40 1015.1
20210621170703 64 0 4.0 13.0 0.00 0.03 0.00 39 1015.2
20210621170557 64 0 4.0 13.0 0.00 0.03 0.00 38 1015.2
20210621170453 64 0 4.0 13.0 0.00 0.03 0.00 39 1015.2
20210621170351 64 0 4.0 12.0 0.00 0.03 0.00 40 1015.3
20210621170248 64 0 4.0 12.0 0.00 0.03 0.00 38 1015.1
20210621170145 64 0 4.0 12.0 0.00 0.03 0.00 37 1015.2
20210621170041 65 0 4.0 12.0 0.00 0.03 0.00 40 1015.2
20210621165937 65 0 4.0 12.0 0.00 0.03 0.00 39 1015.2
20210621165835 65 0 4.0 12.0 0.00 0.03 0.00 39 1015.2
20210621165734 65 0 4.0 13.0 0.00 0.03 0.00 41 1015.2